| time (UTC) | temp F | wind direction | speed knots | gust knots | rain 1hr in | rain 24hr in | rain mn in | humidity % | barometer mb |
| 20260507081804 | 47 | 347 | 6.1 | 8.7 | 0.04 | 0.59 | 0.35 | 95 | 1009.8 |
| 20260507081704 | 47 | 348 | 6.1 | 8.7 | 0.04 | 0.59 | 0.35 | 95 | 1009.8 |
| 20260507081604 | 47 | 348 | 6.1 | 8.7 | 0.04 | 0.59 | 0.35 | 95 | 1009.9 |
| 20260507081504 | 47 | 348 | 6.1 | 8.7 | 0.04 | 0.59 | 0.35 | 95 | 1009.8 |
| 20260507081404 | 47 | 349 | 6.1 | 8.7 | 0.05 | 0.59 | 0.35 | 95 | 1009.8 |
| 20260507081304 | 47 | 351 | 6.1 | 8.7 | 0.04 | 0.59 | 0.34 | 95 | 1009.9 |
| 20260507081204 | 47 | 352 | 6.1 | 8.7 | 0.04 | 0.59 | 0.34 | 95 | 1009.7 |
| 20260507081105 | 47 | 353 | 6.1 | 8.7 | 0.05 | 0.59 | 0.34 | 95 | 1009.7 |
| 20260507081004 | 47 | 352 | 6.1 | 8.7 | 0.05 | 0.59 | 0.34 | 95 | 1009.8 |
| 20260507080804 | 47 | 355 | 6.1 | 8.7 | 0.05 | 0.58 | 0.34 | 95 | 1009.7 |
| 20260507080704 | 47 | 356 | 6.1 | 8.7 | 0.05 | 0.58 | 0.34 | 95 | 1009.7 |
| 20260507080604 | 47 | 357 | 6.1 | 8.7 | 0.05 | 0.58 | 0.34 | 95 | 1009.8 |
| 20260507080504 | 47 | 357 | 6.1 | 7.8 | 0.05 | 0.58 | 0.34 | 95 | 1009.7 |
| 20260507080404 | 47 | 357 | 6.1 | 7.8 | 0.05 | 0.58 | 0.34 | 95 | 1009.8 |
| 20260507080304 | 47 | 357 | 6.1 | 8.7 | 0.06 | 0.58 | 0.34 | 95 | 1009.5 |
| 20260507080204 | 47 | 358 | 6.1 | 8.7 | 0.05 | 0.58 | 0.33 | 95 | 1009.7 |
| 20260507080105 | 47 | 357 | 6.1 | 8.7 | 0.06 | 0.58 | 0.33 | 95 | 1009.8 |
| 20260507075804 | 47 | 355 | 6.1 | 8.7 | 0.06 | 0.58 | 0.33 | 95 | 1009.8 |
| 20260507075704 | 47 | 356 | 6.1 | 8.7 | 0.06 | 0.58 | 0.33 | 95 | 1009.6 |
| 20260507075604 | 47 | 355 | 6.1 | 8.7 | 0.06 | 0.58 | 0.33 | 95 | 1009.6 |
| 20260507075513 | 47 | 355 | 6.1 | 8.7 | 0.06 | 0.58 | 0.33 | 95 | 1009.7 |
| 20260507075504 | 47 | 355 | 6.1 | 8.7 | 0.06 | 0.58 | 0.33 | 95 | 1009.7 |
| 20260507075404 | 47 | 356 | 6.1 | 8.7 | 0.06 | 0.57 | 0.33 | 95 | 1009.6 |
| 20260507075311 | 47 | 357 | 5.2 | 8.7 | 0.06 | 0.57 | 0.33 | 95 | 1009.5 |
| 20260507075204 | 47 | 356 | 5.2 | 7.8 | 0.06 | 0.57 | 0.33 | 95 | 1009.5 |
| 20260507075004 | 47 | 356 | 5.2 | 7.8 | 0.06 | 0.57 | 0.33 | 95 | 1009.5 |
| 20260507074905 | 47 | 355 | 5.2 | 7.8 | 0.07 | 0.57 | 0.33 | 95 | 1009.5 |
| 20260507074804 | 47 | 354 | 5.2 | 7.0 | 0.06 | 0.57 | 0.33 | 95 | 1009.7 |
| 20260507074704 | 47 | 354 | 5.2 | 7.0 | 0.06 | 0.57 | 0.33 | 95 | 1009.5 |
| 20260507074604 | 47 | 355 | 5.2 | 7.0 | 0.07 | 0.57 | 0.33 | 95 | 1009.5 |
| 20260507074504 | 47 | 354 | 5.2 | 7.0 | 0.07 | 0.57 | 0.33 | 95 | 1009.6 |
| 20260507074404 | 47 | 352 | 5.2 | 7.0 | 0.07 | 0.57 | 0.33 | 95 | 1009.3 |
| 20260507074306 | 47 | 349 | 5.2 | 7.0 | 0.07 | 0.57 | 0.33 | 95 | 1009.3 |
| 20260507074204 | 47 | 348 | 5.2 | 7.0 | 0.07 | 0.57 | 0.32 | 95 | 1009.5 |
| 20260507074104 | 47 | 347 | 5.2 | 7.0 | 0.07 | 0.57 | 0.32 | 95 | 1009.5 |
| 20260507074004 | 47 | 346 | 5.2 | 7.0 | 0.07 | 0.57 | 0.32 | 95 | 1009.4 |
| 20260507073904 | 47 | 346 | 5.2 | 6.1 | 0.08 | 0.57 | 0.32 | 95 | 1009.3 |
| 20260507073804 | 47 | 346 | 5.2 | 6.1 | 0.08 | 0.57 | 0.32 | 96 | 1009.3 |
| 20260507073604 | 47 | 347 | 5.2 | 7.8 | 0.07 | 0.56 | 0.32 | 95 | 1009.4 |
| 20260507073504 | 47 | 347 | 5.2 | 7.8 | 0.07 | 0.56 | 0.32 | 95 | 1009.4 |
| 20260507073404 | 47 | 346 | 5.2 | 7.8 | 0.07 | 0.56 | 0.32 | 95 | 1009.4 |
| 20260507073305 | 47 | 346 | 5.2 | 7.8 | 0.07 | 0.56 | 0.32 | 95 | 1009.2 |
| 20260507073204 | 47 | 346 | 5.2 | 7.8 | 0.07 | 0.56 | 0.32 | 96 | 1009.4 |
| 20260507073104 | 47 | 347 | 5.2 | 7.8 | 0.08 | 0.56 | 0.32 | 96 | 1009.3 |
| 20260507073004 | 47 | 348 | 5.2 | 7.8 | 0.08 | 0.56 | 0.32 | 96 | 1009.3 |
| 20260507072904 | 47 | 347 | 5.2 | 7.8 | 0.08 | 0.56 | 0.32 | 95 | 1009.4 |
| 20260507072804 | 47 | 347 | 5.2 | 7.8 | 0.08 | 0.56 | 0.32 | 96 | 1009.4 |
| 20260507072705 | 47 | 347 | 5.2 | 7.8 | 0.07 | 0.56 | 0.31 | 95 | 1009.3 |
| 20260507072604 | 47 | 346 | 5.2 | 7.8 | 0.07 | 0.56 | 0.31 | 95 | 1009.3 |
| 20260507072504 | 47 | 347 | 5.2 | 7.8 | 0.07 | 0.56 | 0.31 | 95 | 1009.5 |
| 20260507072404 | 47 | 349 | 4.3 | 7.0 | 0.07 | 0.56 | 0.31 | 95 | 1009.3 |
| 20260507072312 | 47 | 350 | 4.3 | 7.0 | 0.07 | 0.56 | 0.31 | 95 | 1009.3 |
| 20260507072306 | 47 | 350 | 4.3 | 7.0 | 0.07 | 0.56 | 0.31 | 95 | 1009.3 |
| 20260507072204 | 47 | 352 | 4.3 | 7.0 | 0.07 | 0.56 | 0.31 | 95 | 1009.4 |
| 20260507072004 | 47 | 354 | 4.3 | 7.0 | 0.07 | 0.55 | 0.31 | 96 | 1009.3 |
| 20260507071904 | 47 | 355 | 4.3 | 7.0 | 0.07 | 0.55 | 0.31 | 96 | 1009.2 |
| 20260507071704 | 47 | 357 | 4.3 | 6.1 | 0.07 | 0.55 | 0.30 | 96 | 1009.3 |
| 20260507071604 | 47 | 357 | 4.3 | 6.1 | 0.07 | 0.55 | 0.30 | 96 | 1009.2 |
| 20260507071404 | 47 | 359 | 5.2 | 6.1 | 0.07 | 0.54 | 0.30 | 96 | 1009.2 |
| 20260507071304 | 47 | 358 | 5.2 | 6.1 | 0.07 | 0.54 | 0.30 | 96 | 1009.3 |
| 20260507071204 | 47 | 357 | 5.2 | 6.1 | 0.07 | 0.54 | 0.30 | 96 | 1009.1 |
| 20260507071104 | 47 | 354 | 3.5 | 6.1 | 0.07 | 0.54 | 0.30 | 96 | 1009.4 |
| 20260507071004 | 47 | 353 | 3.5 | 5.2 | 0.07 | 0.54 | 0.30 | 96 | 1009.1 |
| 20260507070904 | 47 | 353 | 3.5 | 5.2 | 0.06 | 0.54 | 0.29 | 96 | 1009.1 |
| 20260507070805 | 47 | 353 | 3.5 | 5.2 | 0.06 | 0.54 | 0.29 | 96 | 1009.3 |
| 20260507070704 | 47 | 353 | 3.5 | 5.2 | 0.06 | 0.54 | 0.29 | 95 | 1009.0 |
| 20260507070604 | 47 | 353 | 3.5 | 5.2 | 0.06 | 0.53 | 0.29 | 96 | 1009.3 |
| 20260507070504 | 47 | 353 | 3.5 | 5.2 | 0.06 | 0.53 | 0.29 | 96 | 1009.1 |
| 20260507070404 | 47 | 353 | 3.5 | 5.2 | 0.06 | 0.53 | 0.29 | 96 | 1009.3 |
| 20260507070304 | 47 | 353 | 3.5 | 5.2 | 0.06 | 0.53 | 0.28 | 96 | 1009.1 |
| 20260507070104 | 47 | 354 | 3.5 | 5.2 | 0.06 | 0.52 | 0.28 | 96 | 1009.2 |
| 20260507070010 | 47 | 355 | 3.5 | 5.2 | 0.06 | 0.52 | 0.28 | 96 | 1009.0 |
| 20260507065804 | 47 | 357 | 3.5 | 5.2 | 0.06 | 0.52 | 0.28 | 96 | 1009.0 |
| 20260507065704 | 47 | 358 | 3.5 | 5.2 | 0.06 | 0.52 | 0.27 | 96 | 1009.2 |
| 20260507065604 | 47 | 359 | 3.5 | 5.2 | 0.06 | 0.52 | 0.27 | 96 | 1009.2 |
| 20260507065504 | 47 | 359 | 3.5 | 5.2 | 0.06 | 0.52 | 0.27 | 96 | 1009.0 |
| 20260507065306 | 47 | 360 | 3.5 | 5.2 | 0.06 | 0.51 | 0.27 | 96 | 1008.8 |
| 20260507065204 | 47 | 360 | 3.5 | 5.2 | 0.06 | 0.51 | 0.27 | 96 | 1009.1 |
| 20260507065104 | 47 | 359 | 3.5 | 5.2 | 0.06 | 0.51 | 0.27 | 96 | 1009.1 |
| 20260507065004 | 47 | 358 | 3.5 | 5.2 | 0.06 | 0.51 | 0.27 | 96 | 1009.0 |
| 20260507064804 | 47 | 357 | 3.5 | 5.2 | 0.06 | 0.51 | 0.26 | 96 | 1009.1 |
| 20260507064704 | 47 | 360 | 3.5 | 5.2 | 0.06 | 0.51 | 0.26 | 96 | 1009.1 |
| 20260507064604 | 47 | 2 | 3.5 | 5.2 | 0.06 | 0.50 | 0.26 | 96 | 1008.9 |
| 20260507064512 | 47 | 5 | 3.5 | 3.5 | 0.06 | 0.50 | 0.26 | 96 | 1008.9 |
| 20260507064504 | 47 | 6 | 3.5 | 3.5 | 0.06 | 0.50 | 0.26 | 96 | 1008.9 |
| 20260507064405 | 47 | 10 | 3.5 | 3.5 | 0.06 | 0.50 | 0.26 | 96 | 1009.0 |
| 20260507064211 | 47 | 17 | 3.5 | 3.5 | 0.05 | 0.50 | 0.25 | 96 | 1009.2 |
| 20260507064205 | 47 | 18 | 3.5 | 3.5 | 0.05 | 0.50 | 0.25 | 96 | 1009.2 |
| 20260507064104 | 47 | 22 | 3.5 | 3.5 | 0.06 | 0.50 | 0.25 | 96 | 1008.9 |
| 20260507064011 | 47 | 25 | 3.5 | 3.5 | 0.05 | 0.49 | 0.25 | 96 | 1009.0 |
| 20260507063904 | 47 | 29 | 3.5 | 3.5 | 0.05 | 0.49 | 0.24 | 96 | 1008.9 |
| 20260507063704 | 47 | 26 | 3.5 | 3.5 | 0.05 | 0.49 | 0.24 | 96 | 1008.8 |
| 20260507063604 | 47 | 23 | 3.5 | 3.5 | 0.05 | 0.49 | 0.24 | 96 | 1009.0 |
| 20260507063505 | 47 | 20 | 2.6 | 3.5 | 0.05 | 0.49 | 0.24 | 96 | 1008.9 |
| 20260507063404 | 47 | 16 | 2.6 | 3.5 | 0.05 | 0.49 | 0.24 | 96 | 1008.8 |
| 20260507063304 | 47 | 14 | 2.6 | 3.5 | 0.05 | 0.49 | 0.24 | 96 | 1008.8 |
| 20260507063204 | 47 | 12 | 2.6 | 3.5 | 0.06 | 0.49 | 0.24 | 96 | 1008.7 |
| 20260507063104 | 47 | 6 | 1.7 | 3.5 | 0.05 | 0.48 | 0.24 | 96 | 1008.9 |
| 20260507063004 | 47 | 359 | 1.7 | 3.5 | 0.06 | 0.48 | 0.24 | 96 | 1008.9 |
| 20260507062904 | 47 | 348 | 1.7 | 3.5 | 0.06 | 0.48 | 0.24 | 96 | 1008.8 |
| 20260507062804 | 47 | 337 | 0.9 | 3.5 | 0.06 | 0.48 | 0.24 | 96 | 1008.8 |
| 20260507062704 | 47 | 327 | 0.9 | 3.5 | 0.06 | 0.48 | 0.24 | 96 | 1008.7 |
| 20260507062604 | 47 | 308 | 1.7 | 3.5 | 0.06 | 0.48 | 0.24 | 96 | 1008.7 |
| 20260507062504 | 47 | 273 | 1.7 | 5.2 | 0.06 | 0.48 | 0.24 | 96 | 1008.9 |
| 20260507062404 | 47 | 253 | 0.9 | 5.2 | 0.06 | 0.48 | 0.24 | 96 | 1008.9 |
| 20260507062306 | 47 | 242 | 1.7 | 5.2 | 0.06 | 0.48 | 0.24 | 96 | 1008.8 |
| 20260507062204 | 47 | 239 | 1.7 | 5.2 | 0.06 | 0.48 | 0.24 | 96 | 1008.9 |
| 20260507062104 | 47 | 236 | 1.7 | 6.1 | 0.06 | 0.48 | 0.24 | 96 | 1008.8 |
| 20260507062012 | 47 | 232 | 2.6 | 6.1 | 0.06 | 0.48 | 0.24 | 96 | 1008.8 |
| 20260507061904 | 47 | 230 | 2.6 | 7.0 | 0.06 | 0.48 | 0.24 | 96 | 1008.8 |
| 20260507061704 | 47 | 232 | 3.5 | 7.0 | 0.06 | 0.48 | 0.24 | 96 | 1008.7 |
| 20260507061604 | 47 | 232 | 3.5 | 7.0 | 0.06 | 0.48 | 0.23 | 96 | 1008.6 |
| 20260507061504 | 47 | 232 | 3.5 | 7.0 | 0.06 | 0.48 | 0.23 | 96 | 1008.6 |
| 20260507061404 | 47 | 233 | 4.3 | 7.0 | 0.06 | 0.48 | 0.23 | 96 | 1008.6 |
| 20260507061304 | 47 | 231 | 4.3 | 9.6 | 0.06 | 0.48 | 0.23 | 96 | 1008.7 |
| 20260507061204 | 47 | 230 | 5.2 | 9.6 | 0.06 | 0.47 | 0.23 | 96 | 1008.5 |
| 20260507061104 | 47 | 229 | 5.2 | 9.6 | 0.06 | 0.47 | 0.23 | 96 | 1008.7 |
| 20260507061011 | 47 | 228 | 5.2 | 9.6 | 0.06 | 0.47 | 0.23 | 96 | 1008.6 |
| 20260507061004 | 47 | 228 | 5.2 | 9.6 | 0.06 | 0.47 | 0.23 | 96 | 1008.6 |
| 20260507060904 | 47 | 228 | 5.2 | 9.6 | 0.06 | 0.47 | 0.23 | 96 | 1008.8 |
| 20260507060704 | 46 | 229 | 5.2 | 9.6 | 0.06 | 0.47 | 0.23 | 96 | 1008.5 |
| 20260507060604 | 46 | 230 | 5.2 | 9.6 | 0.06 | 0.47 | 0.22 | 96 | 1008.4 |
| 20260507060505 | 46 | 231 | 5.2 | 9.6 | 0.07 | 0.47 | 0.22 | 96 | 1008.5 |
| 20260507060404 | 46 | 233 | 5.2 | 9.6 | 0.07 | 0.47 | 0.22 | 96 | 1008.5 |
| 20260507060304 | 46 | 238 | 4.3 | 8.7 | 0.07 | 0.47 | 0.22 | 96 | 1008.4 |
| 20260507060212 | 46 | 241 | 4.3 | 7.8 | 0.07 | 0.46 | 0.22 | 96 | 1008.5 |
| 20260507060204 | 46 | 242 | 4.3 | 7.8 | 0.07 | 0.46 | 0.22 | 96 | 1008.5 |
| 20260507060104 | 46 | 246 | 4.3 | 7.8 | 0.07 | 0.46 | 0.22 | 96 | 1008.6 |
| 20260507055904 | 46 | 251 | 4.3 | 7.8 | 0.07 | 0.46 | 0.22 | 96 | 1008.6 |
| 20260507055804 | 46 | 253 | 4.3 | 7.8 | 0.07 | 0.46 | 0.22 | 96 | 1008.5 |
| 20260507055704 | 46 | 255 | 3.5 | 7.8 | 0.07 | 0.46 | 0.22 | 96 | 1008.7 |
| 20260507055604 | 46 | 261 | 3.5 | 7.8 | 0.07 | 0.46 | 0.21 | 96 | 1008.4 |
| 20260507055504 | 46 | 267 | 3.5 | 7.0 | 0.07 | 0.46 | 0.21 | 96 | 1008.5 |
| 20260507055404 | 46 | 263 | 3.5 | 7.0 | 0.07 | 0.46 | 0.21 | 96 | 1008.6 |
| 20260507055306 | 46 | 265 | 3.5 | 7.0 | 0.07 | 0.45 | 0.21 | 96 | 1008.7 |
| 20260507055211 | 46 | 266 | 3.5 | 7.0 | 0.07 | 0.45 | 0.21 | 96 | 1008.6 |
| 20260507055204 | 46 | 266 | 3.5 | 6.1 | 0.07 | 0.45 | 0.21 | 96 | 1008.6 |
| 20260507055104 | 46 | 270 | 3.5 | 6.1 | 0.08 | 0.45 | 0.21 | 96 | 1008.5 |
| 20260507054904 | 46 | 281 | 2.6 | 6.1 | 0.07 | 0.45 | 0.20 | 96 | 1008.7 |
| 20260507054804 | 46 | 284 | 2.6 | 6.1 | 0.08 | 0.45 | 0.20 | 96 | 1008.5 |
| 20260507054711 | 46 | 291 | 3.5 | 7.0 | 0.08 | 0.45 | 0.20 | 96 | 1008.4 |
| 20260507054704 | 46 | 292 | 3.5 | 7.0 | 0.08 | 0.45 | 0.20 | 96 | 1008.4 |
| 20260507054604 | 46 | 293 | 3.5 | 7.0 | 0.08 | 0.45 | 0.20 | 96 | 1008.5 |
| 20260507054404 | 46 | 304 | 3.5 | 7.0 | 0.08 | 0.44 | 0.20 | 96 | 1008.5 |
| 20260507054304 | 46 | 309 | 3.5 | 7.0 | 0.08 | 0.44 | 0.20 | 96 | 1008.5 |
| 20260507054204 | 46 | 313 | 3.5 | 7.0 | 0.08 | 0.44 | 0.20 | 96 | 1008.6 |
| 20260507054104 | 46 | 317 | 3.5 | 7.0 | 0.08 | 0.44 | 0.20 | 96 | 1008.5 |
| 20260507054004 | 46 | 321 | 4.3 | 7.0 | 0.08 | 0.44 | 0.20 | 96 | 1008.6 |
| 20260507053904 | 46 | 325 | 4.3 | 7.0 | 0.08 | 0.44 | 0.20 | 96 | 1008.5 |
| 20260507053804 | 46 | 330 | 4.3 | 7.0 | 0.08 | 0.44 | 0.20 | 96 | 1008.5 |
| 20260507053704 | 46 | 335 | 4.3 | 8.7 | 0.08 | 0.44 | 0.20 | 96 | 1008.7 |
| 20260507053604 | 46 | 338 | 4.3 | 8.7 | 0.08 | 0.44 | 0.19 | 96 | 1008.4 |
| 20260507053504 | 46 | 341 | 4.3 | 8.7 | 0.08 | 0.44 | 0.19 | 96 | 1008.6 |
| 20260507053304 | 46 | 348 | 5.2 | 8.7 | 0.08 | 0.44 | 0.19 | 96 | 1008.5 |
| 20260507053211 | 46 | 347 | 5.2 | 8.7 | 0.08 | 0.43 | 0.19 | 96 | 1008.7 |
| 20260507053204 | 46 | 347 | 5.2 | 8.7 | 0.08 | 0.43 | 0.19 | 96 | 1008.7 |
| 20260507053104 | 46 | 348 | 5.2 | 8.7 | 0.08 | 0.43 | 0.19 | 96 | 1008.4 |
| 20260507052904 | 46 | 352 | 5.2 | 8.7 | 0.07 | 0.43 | 0.19 | 96 | 1008.6 |
| 20260507052804 | 46 | 353 | 5.2 | 8.7 | 0.07 | 0.43 | 0.19 | 96 | 1008.4 |
| 20260507052704 | 46 | 352 | 5.2 | 8.7 | 0.08 | 0.43 | 0.19 | 96 | 1008.3 |
| 20260507052604 | 46 | 352 | 5.2 | 8.7 | 0.08 | 0.43 | 0.19 | 96 | 1008.5 |
| 20260507052505 | 46 | 353 | 5.2 | 8.7 | 0.08 | 0.43 | 0.19 | 96 | 1008.3 |
| 20260507052404 | 46 | 351 | 5.2 | 8.7 | 0.07 | 0.43 | 0.18 | 96 | 1008.4 |
| 20260507052306 | 46 | 351 | 5.2 | 8.7 | 0.07 | 0.43 | 0.18 | 96 | 1008.3 |
| 20260507052204 | 46 | 352 | 5.2 | 8.7 | 0.07 | 0.43 | 0.18 | 96 | 1008.4 |
| 20260507052105 | 46 | 354 | 5.2 | 8.7 | 0.07 | 0.43 | 0.18 | 96 | 1008.3 |
| 20260507052004 | 46 | 352 | 5.2 | 8.7 | 0.07 | 0.42 | 0.18 | 96 | 1008.4 |
| 20260507051812 | 46 | 350 | 5.2 | 8.7 | 0.07 | 0.42 | 0.18 | 96 | 1008.2 |
| 20260507051704 | 46 | 352 | 6.1 | 8.7 | 0.07 | 0.42 | 0.17 | 96 | 1008.3 |
| 20260507051504 | 46 | 352 | 6.1 | 9.6 | 0.07 | 0.41 | 0.17 | 96 | 1008.4 |
| 20260507051404 | 46 | 353 | 6.1 | 9.6 | 0.07 | 0.41 | 0.17 | 96 | 1008.2 |
| 20260507051204 | 46 | 353 | 6.1 | 9.6 | 0.07 | 0.41 | 0.17 | 96 | 1008.4 |
| 20260507051104 | 46 | 353 | 6.1 | 9.6 | 0.07 | 0.41 | 0.17 | 96 | 1008.2 |
| 20260507051004 | 46 | 356 | 6.1 | 9.6 | 0.07 | 0.41 | 0.17 | 96 | 1008.2 |
| 20260507050904 | 46 | 356 | 6.1 | 9.6 | 0.07 | 0.41 | 0.17 | 96 | 1008.3 |
| 20260507050804 | 46 | 354 | 6.1 | 9.6 | 0.07 | 0.41 | 0.17 | 96 | 1008.2 |
| 20260507050704 | 46 | 353 | 6.1 | 9.6 | 0.07 | 0.41 | 0.17 | 96 | 1008.1 |
| 20260507050604 | 46 | 351 | 6.1 | 9.6 | 0.07 | 0.41 | 0.16 | 96 | 1008.2 |
| 20260507050504 | 46 | 351 | 6.1 | 8.7 | 0.06 | 0.40 | 0.16 | 96 | 1008.3 |
| 20260507050404 | 46 | 352 | 6.1 | 8.7 | 0.06 | 0.40 | 0.16 | 96 | 1008.2 |
| 20260507050304 | 46 | 351 | 6.1 | 8.7 | 0.06 | 0.40 | 0.15 | 96 | 1008.1 |
| 20260507050204 | 46 | 351 | 6.1 | 8.7 | 0.06 | 0.39 | 0.15 | 96 | 1008.1 |
| 20260507050104 | 46 | 350 | 6.1 | 11.3 | 0.06 | 0.39 | 0.15 | 96 | 1008.1 |
| 20260507050006 | 46 | 349 | 7.0 | 11.3 | 0.06 | 0.39 | 0.15 | 96 | 1008.1 |
| 20260507045904 | 46 | 350 | 7.0 | 11.3 | 0.06 | 0.39 | 0.15 | 96 | 1008.1 |
| 20260507045804 | 46 | 350 | 7.0 | 11.3 | 0.05 | 0.39 | 0.15 | 96 | 1007.8 |
| 20260507045711 | 46 | 351 | 7.0 | 11.3 | 0.05 | 0.39 | 0.14 | 96 | 1007.9 |
| 20260507045604 | 46 | 353 | 7.0 | 11.3 | 0.05 | 0.38 | 0.14 | 96 | 1008.1 |
| 20260507045404 | 46 | 352 | 7.0 | 11.3 | 0.05 | 0.38 | 0.14 | 96 | 1008.1 |
| 20260507045306 | 46 | 350 | 7.0 | 11.3 | 0.04 | 0.38 | 0.13 | 96 | 1007.8 |
| 20260507045204 | 46 | 349 | 7.0 | 11.3 | 0.04 | 0.38 | 0.13 | 96 | 1008.1 |
| 20260507045104 | 46 | 349 | 6.1 | 11.3 | 0.04 | 0.37 | 0.13 | 96 | 1008.1 |
| 20260507045004 | 46 | 350 | 6.1 | 11.3 | 0.04 | 0.37 | 0.13 | 96 | 1008.1 |
| 20260507044904 | 46 | 349 | 6.1 | 11.3 | 0.04 | 0.37 | 0.13 | 96 | 1008.1 |
| 20260507044804 | 46 | 348 | 6.1 | 11.3 | 0.04 | 0.37 | 0.13 | 96 | 1008.1 |
| 20260507044604 | 46 | 345 | 5.2 | 11.3 | 0.03 | 0.37 | 0.12 | 96 | 1007.9 |
| 20260507044505 | 46 | 344 | 5.2 | 11.3 | 0.03 | 0.37 | 0.12 | 96 | 1007.8 |
| 20260507044404 | 46 | 344 | 5.2 | 9.6 | 0.03 | 0.36 | 0.12 | 96 | 1007.8 |
| 20260507044304 | 46 | 344 | 4.3 | 7.8 | 0.03 | 0.36 | 0.12 | 96 | 1008.1 |
| 20260507044204 | 46 | 345 | 5.2 | 7.8 | 0.03 | 0.36 | 0.12 | 96 | 1007.8 |
| 20260507044104 | 46 | 346 | 5.2 | 8.7 | 0.03 | 0.36 | 0.12 | 96 | 1007.9 |
| 20260507044004 | 46 | 347 | 5.2 | 8.7 | 0.02 | 0.36 | 0.12 | 96 | 1007.9 |
| 20260507043904 | 46 | 346 | 5.2 | 8.7 | 0.02 | 0.36 | 0.11 | 96 | 1007.7 |
| 20260507043804 | 46 | 345 | 4.3 | 8.7 | 0.02 | 0.36 | 0.11 | 96 | 1007.9 |
| 20260507043704 | 46 | 344 | 4.3 | 8.7 | 0.02 | 0.36 | 0.11 | 96 | 1007.9 |
| 20260507043604 | 46 | 344 | 4.3 | 8.7 | 0.02 | 0.36 | 0.11 | 96 | 1007.9 |
| 20260507043505 | 46 | 343 | 4.3 | 8.7 | 0.02 | 0.35 | 0.11 | 96 | 1007.8 |
| 20260507043404 | 46 | 342 | 4.3 | 8.7 | 0.02 | 0.35 | 0.11 | 96 | 1007.8 |
| 20260507043304 | 46 | 341 | 4.3 | 8.7 | 0.02 | 0.35 | 0.11 | 96 | 1007.7 |
| 20260507043204 | 46 | 340 | 4.3 | 8.7 | 0.02 | 0.35 | 0.11 | 96 | 1007.9 |
| 20260507043004 | 46 | 337 | 5.2 | 9.6 | 0.02 | 0.35 | 0.11 | 96 | 1007.8 |
| 20260507042904 | 46 | 339 | 5.2 | 9.6 | 0.02 | 0.35 | 0.11 | 96 | 1007.7 |
| 20260507042804 | 46 | 341 | 6.1 | 9.6 | 0.02 | 0.35 | 0.11 | 96 | 1007.7 |
| 20260507042604 | 46 | 342 | 6.1 | 9.6 | 0.02 | 0.35 | 0.11 | 96 | 1007.6 |
| 20260507042505 | 46 | 343 | 6.1 | 9.6 | 0.02 | 0.35 | 0.11 | 96 | 1007.7 |
| 20260507042404 | 46 | 343 | 6.1 | 9.6 | 0.02 | 0.35 | 0.11 | 96 | 1007.7 |
| 20260507042306 | 46 | 344 | 6.1 | 9.6 | 0.02 | 0.35 | 0.11 | 96 | 1007.5 |
| 20260507042204 | 46 | 343 | 6.1 | 9.6 | 0.02 | 0.35 | 0.11 | 96 | 1007.6 |
| 20260507042104 | 46 | 344 | 5.2 | 9.6 | 0.02 | 0.35 | 0.11 | 96 | 1007.7 |
| 20260507042004 | 46 | 342 | 5.2 | 9.6 | 0.02 | 0.35 | 0.10 | 96 | 1007.6 |
| 20260507041911 | 46 | 341 | 5.2 | 9.6 | 0.02 | 0.35 | 0.10 | 96 | 1007.6 |
| 20260507041904 | 46 | 340 | 5.2 | 9.6 | 0.02 | 0.35 | 0.10 | 96 | 1007.6 |
| 20260507041804 | 46 | 338 | 4.3 | 9.6 | 0.02 | 0.35 | 0.10 | 96 | 1007.6 |
| 20260507041607 | 46 | 339 | 4.3 | 8.7 | 0.02 | 0.35 | 0.10 | 96 | 1007.6 |
| 20260507041504 | 46 | 338 | 4.3 | 7.0 | 0.02 | 0.35 | 0.10 | 96 | 1007.5 |
| 20260507041404 | 46 | 339 | 4.3 | 7.8 | 0.02 | 0.35 | 0.10 | 96 | 1007.4 |
| 20260507041304 | 47 | 337 | 4.3 | 7.8 | 0.01 | 0.34 | 0.10 | 96 | 1007.5 |
| 20260507041204 | 47 | 336 | 4.3 | 7.8 | 0.01 | 0.34 | 0.10 | 96 | 1007.6 |
| 20260507041104 | 47 | 335 | 4.3 | 7.8 | 0.01 | 0.34 | 0.10 | 96 | 1007.4 |
| 20260507041004 | 47 | 336 | 4.3 | 7.8 | 0.01 | 0.34 | 0.10 | 96 | 1007.6 |
| 20260507040904 | 47 | 335 | 4.3 | 7.8 | 0.01 | 0.34 | 0.10 | 96 | 1007.5 |
| 20260507040804 | 47 | 337 | 5.2 | 9.6 | 0.01 | 0.34 | 0.09 | 96 | 1007.5 |
| 20260507040704 | 47 | 335 | 5.2 | 9.6 | 0.01 | 0.34 | 0.09 | 96 | 1007.6 |
| 20260507040604 | 47 | 334 | 4.3 | 9.6 | 0.01 | 0.34 | 0.09 | 96 | 1007.5 |
| 20260507040505 | 47 | 334 | 4.3 | 9.6 | 0.01 | 0.34 | 0.09 | 95 | 1007.3 |
| 20260507040405 | 47 | 332 | 5.2 | 9.6 | 0.01 | 0.34 | 0.09 | 95 | 1007.5 |
| 20260507040305 | 47 | 334 | 5.2 | 9.6 | 0.01 | 0.34 | 0.09 | 96 | 1007.3 |
| 20260507040204 | 47 | 336 | 5.2 | 9.6 | 0.01 | 0.34 | 0.09 | 96 | 1007.4 |
| 20260507040104 | 47 | 336 | 5.2 | 9.6 | 0.01 | 0.34 | 0.09 | 96 | 1007.4 |
| 20260507040005 | 47 | 335 | 5.2 | 9.6 | 0.01 | 0.34 | 0.09 | 96 | 1007.4 |
| 20260507035904 | 47 | 336 | 5.2 | 9.6 | 0.01 | 0.34 | 0.09 | 96 | 1007.4 |
| 20260507035704 | 47 | 335 | 5.2 | 11.3 | 0.01 | 0.34 | 0.09 | 96 | 1007.3 |
| 20260507035604 | 47 | 334 | 4.3 | 11.3 | 0.01 | 0.34 | 0.09 | 96 | 1007.3 |
| 20260507035504 | 47 | 331 | 5.2 | 11.3 | 0.01 | 0.34 | 0.09 | 96 | 1007.2 |
| 20260507035404 | 47 | 330 | 5.2 | 11.3 | 0.01 | 0.34 | 0.09 | 96 | 1007.2 |
| 20260507035204 | 47 | 327 | 5.2 | 11.3 | 0.01 | 0.34 | 0.09 | 96 | 1007.3 |
| 20260507035104 | 47 | 329 | 5.2 | 11.3 | 0.01 | 0.34 | 0.09 | 96 | 1007.2 |
| 20260507035004 | 47 | 328 | 5.2 | 11.3 | 0.01 | 0.34 | 0.09 | 96 | 1007.1 |
| 20260507034904 | 47 | 325 | 5.2 | 11.3 | 0.01 | 0.34 | 0.09 | 96 | 1007.2 |
| 20260507034605 | 47 | 324 | 5.2 | 9.6 | 0.01 | 0.34 | 0.09 | 96 | 1007.2 |
| 20260507034505 | 47 | 324 | 4.3 | 8.7 | 0.01 | 0.34 | 0.09 | 96 | 1007.1 |
| 20260507034404 | 47 | 326 | 4.3 | 8.7 | 0.01 | 0.34 | 0.09 | 96 | 1007.2 |
| 20260507034304 | 47 | 326 | 4.3 | 8.7 | 0.01 | 0.34 | 0.09 | 96 | 1007.1 |
| 20260507034104 | 47 | 326 | 4.3 | 8.7 | 0.01 | 0.34 | 0.09 | 96 | 1007.2 |
| 20260507034005 | 47 | 327 | 4.3 | 8.7 | 0.01 | 0.34 | 0.09 | 96 | 1007.0 |
| 20260507033904 | 47 | 329 | 4.3 | 8.7 | 0.01 | 0.34 | 0.09 | 96 | 1007.2 |
| 20260507033804 | 47 | 330 | 5.2 | 9.6 | 0.01 | 0.34 | 0.09 | 96 | 1007.0 |
| 20260507033704 | 47 | 330 | 5.2 | 9.6 | 0.01 | 0.34 | 0.09 | 96 | 1007.2 |
| 20260507033604 | 47 | 333 | 5.2 | 11.3 | 0.01 | 0.34 | 0.09 | 96 | 1006.9 |
| 20260507033504 | 47 | 335 | 6.1 | 11.3 | 0.01 | 0.34 | 0.09 | 96 | 1007.0 |
| 20260507033404 | 47 | 334 | 6.1 | 11.3 | 0.01 | 0.34 | 0.09 | 96 | 1007.1 |
| 20260507033304 | 47 | 335 | 6.1 | 11.3 | 0.01 | 0.34 | 0.09 | 96 | 1007.0 |
| 20260507033204 | 47 | 337 | 6.1 | 11.3 | 0.01 | 0.34 | 0.09 | 96 | 1006.9 |
| 20260507033104 | 47 | 338 | 6.1 | 11.3 | 0.01 | 0.34 | 0.09 | 95 | 1007.0 |
| 20260507033004 | 47 | 340 | 6.1 | 11.3 | 0.01 | 0.34 | 0.09 | 95 | 1007.0 |
| 20260507032904 | 47 | 340 | 7.0 | 12.2 | 0.01 | 0.34 | 0.09 | 95 | 1007.0 |
| 20260507032804 | 47 | 342 | 7.0 | 12.2 | 0.01 | 0.34 | 0.09 | 95 | 1007.1 |
| 20260507032704 | 47 | 341 | 7.0 | 12.2 | 0.00 | 0.33 | 0.09 | 95 | 1007.1 |
| 20260507032604 | 47 | 340 | 7.0 | 12.2 | 0.00 | 0.33 | 0.09 | 95 | 1007.0 |
| 20260507032504 | 47 | 339 | 6.1 | 12.2 | 0.00 | 0.33 | 0.09 | 95 | 1007.0 |
| 20260507032404 | 47 | 339 | 6.1 | 12.2 | 0.00 | 0.33 | 0.09 | 95 | 1007.0 |
| 20260507032306 | 47 | 337 | 6.1 | 12.2 | 0.00 | 0.33 | 0.09 | 95 | 1007.1 |
| 20260507032205 | 47 | 336 | 6.1 | 12.2 | 0.00 | 0.33 | 0.09 | 95 | 1007.0 |
| 20260507032104 | 47 | 335 | 6.1 | 12.2 | 0.00 | 0.33 | 0.09 | 95 | 1007.0 |
| 20260507032004 | 47 | 333 | 6.1 | 12.2 | 0.00 | 0.33 | 0.09 | 95 | 1007.1 |
| 20260507031904 | 47 | 333 | 6.1 | 12.2 | 0.00 | 0.33 | 0.09 | 95 | 1007.0 |
| 20260507031704 | 47 | 331 | 5.2 | 9.6 | 0.00 | 0.33 | 0.09 | 95 | 1007.0 |
| 20260507031604 | 47 | 332 | 5.2 | 9.6 | 0.00 | 0.33 | 0.09 | 95 | 1006.8 |
| 20260507031506 | 47 | 332 | 5.2 | 9.6 | 0.01 | 0.33 | 0.09 | 95 | 1006.8 |
| 20260507031404 | 47 | 334 | 6.1 | 9.6 | 0.01 | 0.33 | 0.09 | 95 | 1006.9 |
| 20260507031204 | 47 | 340 | 6.1 | 9.6 | 0.01 | 0.33 | 0.09 | 95 | 1007.0 |
| 20260507031104 | 47 | 339 | 6.1 | 9.6 | 0.01 | 0.33 | 0.09 | 95 | 1006.8 |
| 20260507030904 | 47 | 336 | 6.1 | 9.6 | 0.01 | 0.33 | 0.09 | 95 | 1007.0 |
| 20260507030804 | 47 | 336 | 6.1 | 9.6 | 0.01 | 0.33 | 0.09 | 95 | 1006.9 |
| 20260507030704 | 47 | 337 | 6.1 | 9.6 | 0.01 | 0.33 | 0.09 | 95 | 1006.9 |
| 20260507030504 | 47 | 333 | 6.1 | 9.6 | 0.00 | 0.33 | 0.08 | 95 | 1006.7 |
| 20260507030405 | 47 | 330 | 6.1 | 9.6 | 0.00 | 0.33 | 0.08 | 95 | 1006.9 |
| 20260507030304 | 47 | 327 | 6.1 | 9.6 | 0.01 | 0.33 | 0.08 | 95 | 1007.0 |
| 20260507030204 | 47 | 326 | 6.1 | 9.6 | 0.01 | 0.33 | 0.08 | 95 | 1007.0 |
| 20260507030104 | 47 | 326 | 6.1 | 9.6 | 0.01 | 0.33 | 0.08 | 95 | 1006.9 |
| 20260507030005 | 47 | 327 | 6.1 | 9.6 | 0.01 | 0.33 | 0.08 | 95 | 1007.0 |
| 20260507025804 | 47 | 330 | 6.1 | 9.6 | 0.01 | 0.33 | 0.08 | 95 | 1006.9 |
| 20260507025704 | 47 | 329 | 6.1 | 9.6 | 0.01 | 0.33 | 0.08 | 95 | 1006.9 |
| 20260507025604 | 47 | 330 | 6.1 | 9.6 | 0.01 | 0.33 | 0.08 | 95 | 1006.9 |
| 20260507025504 | 47 | 331 | 6.1 | 9.6 | 0.01 | 0.33 | 0.08 | 95 | 1006.9 |
| 20260507025404 | 47 | 331 | 6.1 | 9.6 | 0.01 | 0.33 | 0.08 | 95 | 1006.7 |
| 20260507025306 | 47 | 333 | 6.1 | 9.6 | 0.01 | 0.33 | 0.08 | 95 | 1006.7 |
| 20260507025204 | 47 | 335 | 6.1 | 9.6 | 0.01 | 0.33 | 0.08 | 95 | 1006.8 |
| 20260507025104 | 47 | 336 | 6.1 | 11.3 | 0.01 | 0.33 | 0.08 | 95 | 1006.6 |
| 20260507025011 | 47 | 338 | 6.1 | 11.3 | 0.01 | 0.33 | 0.08 | 95 | 1006.7 |
| 20260507025004 | 47 | 337 | 6.1 | 11.3 | 0.01 | 0.33 | 0.08 | 95 | 1006.7 |
| 20260507024904 | 47 | 334 | 6.1 | 11.3 | 0.01 | 0.33 | 0.08 | 95 | 1006.5 |
| 20260507024704 | 47 | 335 | 7.0 | 11.3 | 0.01 | 0.33 | 0.08 | 95 | 1006.8 |
| 20260507024604 | 48 | 334 | 7.0 | 12.2 | 0.01 | 0.33 | 0.08 | 95 | 1006.8 |
| 20260507024505 | 48 | 334 | 7.0 | 12.2 | 0.01 | 0.33 | 0.08 | 95 | 1006.7 |
| 20260507024404 | 48 | 336 | 6.1 | 12.2 | 0.01 | 0.33 | 0.08 | 95 | 1006.9 |
| 20260507024204 | 48 | 334 | 6.1 | 12.2 | 0.01 | 0.33 | 0.08 | 95 | 1006.8 |
| 20260507024104 | 48 | 334 | 6.1 | 12.2 | 0.01 | 0.33 | 0.08 | 95 | 1006.8 |
| 20260507024007 | 48 | 334 | 6.1 | 12.2 | 0.01 | 0.33 | 0.08 | 95 | 1006.8 |
| 20260507023906 | 48 | 336 | 6.1 | 12.2 | 0.01 | 0.33 | 0.08 | 95 | 1006.8 |
| 20260507023604 | 48 | 339 | 7.0 | 12.2 | 0.01 | 0.33 | 0.08 | 95 | 1007.0 |
| 20260507023504 | 48 | 340 | 7.0 | 12.2 | 0.01 | 0.33 | 0.08 | 95 | 1006.7 |
| 20260507023404 | 48 | 340 | 7.0 | 12.2 | 0.01 | 0.33 | 0.08 | 95 | 1006.7 |
| 20260507023304 | 48 | 341 | 7.0 | 11.3 | 0.01 | 0.33 | 0.08 | 95 | 1006.7 |
| 20260507023204 | 48 | 341 | 7.0 | 11.3 | 0.01 | 0.33 | 0.08 | 95 | 1006.8 |
| 20260507023104 | 48 | 341 | 7.0 | 11.3 | 0.01 | 0.33 | 0.08 | 95 | 1006.9 |
| 20260507023004 | 48 | 341 | 7.0 | 11.3 | 0.01 | 0.33 | 0.08 | 95 | 1006.7 |
| 20260507022904 | 48 | 340 | 7.0 | 11.3 | 0.01 | 0.33 | 0.08 | 95 | 1006.8 |
| 20260507022804 | 48 | 339 | 7.0 | 11.3 | 0.01 | 0.33 | 0.08 | 95 | 1006.8 |
| 20260507022704 | 48 | 340 | 7.0 | 11.3 | 0.01 | 0.33 | 0.08 | 95 | 1006.8 |
| 20260507022604 | 48 | 341 | 7.0 | 11.3 | 0.01 | 0.33 | 0.08 | 95 | 1006.8 |
| 20260507022505 | 48 | 341 | 7.0 | 9.6 | 0.01 | 0.33 | 0.08 | 95 | 1006.8 |
| 20260507022404 | 48 | 343 | 7.0 | 9.6 | 0.01 | 0.33 | 0.08 | 95 | 1006.7 |
| 20260507022306 | 48 | 343 | 6.1 | 9.6 | 0.01 | 0.33 | 0.08 | 95 | 1006.9 |
| 20260507022204 | 48 | 344 | 6.1 | 9.6 | 0.01 | 0.33 | 0.08 | 95 | 1006.8 |
| 20260507022104 | 48 | 344 | 6.1 | 9.6 | 0.01 | 0.33 | 0.08 | 95 | 1006.9 |
| 20260507022004 | 48 | 344 | 5.2 | 9.6 | 0.01 | 0.33 | 0.08 | 95 | 1006.7 |
| 20260507021904 | 48 | 345 | 5.2 | 9.6 | 0.01 | 0.33 | 0.08 | 95 | 1006.8 |
| 20260507021804 | 48 | 346 | 5.2 | 9.6 | 0.01 | 0.33 | 0.08 | 95 | 1006.8 |
| 20260507021704 | 48 | 345 | 5.2 | 9.6 | 0.01 | 0.33 | 0.08 | 95 | 1006.6 |
| 20260507021605 | 48 | 343 | 5.2 | 9.6 | 0.01 | 0.33 | 0.08 | 95 | 1006.8 |
| 20260507021504 | 48 | 344 | 5.2 | 8.7 | 0.01 | 0.33 | 0.08 | 95 | 1006.7 |
| 20260507021406 | 48 | 342 | 5.2 | 8.7 | 0.01 | 0.33 | 0.08 | 94 | 1006.9 |
| 20260507021306 | 48 | 343 | 5.2 | 8.7 | 0.01 | 0.33 | 0.08 | 94 | 1006.7 |
| 20260507021204 | 48 | 345 | 6.1 | 9.6 | 0.01 | 0.33 | 0.08 | 94 | 1006.6 |
| 20260507021104 | 48 | 345 | 6.1 | 9.6 | 0.01 | 0.33 | 0.08 | 94 | 1006.7 |
| 20260507021004 | 48 | 346 | 6.1 | 9.6 | 0.01 | 0.33 | 0.08 | 94 | 1006.7 |
| 20260507020905 | 48 | 347 | 6.1 | 9.6 | 0.01 | 0.33 | 0.08 | 94 | 1006.8 |
| 20260507020804 | 48 | 347 | 6.1 | 9.6 | 0.02 | 0.33 | 0.08 | 94 | 1006.7 |
| 20260507020704 | 48 | 347 | 6.1 | 9.6 | 0.02 | 0.33 | 0.08 | 94 | 1006.6 |
| 20260507020604 | 48 | 347 | 6.1 | 9.6 | 0.03 | 0.33 | 0.08 | 94 | 1006.6 |
| 20260507020504 | 48 | 346 | 6.1 | 9.6 | 0.05 | 0.33 | 0.08 | 94 | 1006.5 |
| 20260507020404 | 48 | 345 | 6.1 | 9.6 | 0.05 | 0.33 | 0.08 | 94 | 1006.7 |
| 20260507020304 | 48 | 342 | 6.1 | 9.6 | 0.06 | 0.32 | 0.07 | 94 | 1006.8 |
| 20260507020205 | 48 | 340 | 5.2 | 9.6 | 0.06 | 0.32 | 0.07 | 94 | 1006.8 |
| 20260507020104 | 48 | 339 | 5.2 | 9.6 | 0.06 | 0.32 | 0.07 | 94 | 1006.5 |
| 20260507020006 | 48 | 337 | 5.2 | 9.6 | 0.06 | 0.32 | 0.07 | 94 | 1006.5 |
| 20260507015904 | 48 | 336 | 5.2 | 11.3 | 0.06 | 0.32 | 0.07 | 94 | 1006.6 |
| 20260507015804 | 48 | 335 | 5.2 | 11.3 | 0.06 | 0.32 | 0.07 | 94 | 1006.6 |
| 20260507015704 | 49 | 336 | 5.2 | 11.3 | 0.06 | 0.32 | 0.07 | 94 | 1006.5 |
| 20260507015604 | 49 | 337 | 5.2 | 11.3 | 0.06 | 0.32 | 0.07 | 94 | 1006.5 |
| 20260507015504 | 49 | 337 | 5.2 | 11.3 | 0.06 | 0.32 | 0.07 | 94 | 1006.8 |
| 20260507015306 | 49 | 339 | 5.2 | 11.3 | 0.06 | 0.32 | 0.07 | 94 | 1006.7 |
| 20260507015204 | 49 | 338 | 5.2 | 11.3 | 0.06 | 0.32 | 0.07 | 94 | 1006.6 |
| 20260507015104 | 49 | 338 | 6.1 | 11.3 | 0.06 | 0.32 | 0.07 | 94 | 1006.7 |
| 20260507015004 | 49 | 339 | 5.2 | 11.3 | 0.06 | 0.32 | 0.07 | 94 | 1006.5 |
| 20260507014904 | 49 | 339 | 5.2 | 9.6 | 0.06 | 0.32 | 0.07 | 94 | 1006.5 |
| 20260507014804 | 49 | 339 | 5.2 | 9.6 | 0.06 | 0.32 | 0.07 | 94 | 1006.7 |
| 20260507014704 | 49 | 337 | 5.2 | 8.7 | 0.06 | 0.32 | 0.07 | 94 | 1006.6 |
| 20260507014604 | 49 | 336 | 5.2 | 9.6 | 0.06 | 0.32 | 0.07 | 94 | 1006.4 |
| 20260507014504 | 49 | 339 | 5.2 | 11.3 | 0.06 | 0.32 | 0.07 | 94 | 1006.4 |
| 20260507014404 | 49 | 337 | 6.1 | 11.3 | 0.06 | 0.32 | 0.07 | 94 | 1006.6 |
| 20260507014304 | 49 | 336 | 5.2 | 11.3 | 0.07 | 0.32 | 0.07 | 94 | 1006.6 |
| 20260507014204 | 49 | 337 | 5.2 | 11.3 | 0.07 | 0.32 | 0.07 | 94 | 1006.5 |
| 20260507014104 | 49 | 337 | 5.2 | 11.3 | 0.07 | 0.32 | 0.07 | 94 | 1006.7 |
| 20260507014005 | 49 | 337 | 5.2 | 11.3 | 0.07 | 0.32 | 0.07 | 94 | 1006.4 |
| 20260507013804 | 49 | 337 | 5.2 | 11.3 | 0.07 | 0.32 | 0.07 | 94 | 1006.5 |
| 20260507013704 | 49 | 334 | 5.2 | 11.3 | 0.07 | 0.32 | 0.07 | 94 | 1006.3 |
| 20260507013604 | 49 | 334 | 5.2 | 11.3 | 0.07 | 0.32 | 0.07 | 94 | 1006.5 |
| 20260507013504 | 49 | 332 | 4.3 | 11.3 | 0.07 | 0.32 | 0.07 | 94 | 1006.4 |
| 20260507013404 | 49 | 330 | 4.3 | 9.6 | 0.07 | 0.32 | 0.07 | 94 | 1006.5 |
| 20260507013304 | 49 | 331 | 4.3 | 9.6 | 0.07 | 0.32 | 0.07 | 94 | 1006.3 |
| 20260507013211 | 49 | 330 | 4.3 | 9.6 | 0.07 | 0.32 | 0.07 | 94 | 1006.5 |
| 20260507013204 | 49 | 331 | 4.3 | 9.6 | 0.07 | 0.32 | 0.07 | 94 | 1006.5 |
| 20260507013104 | 49 | 330 | 4.3 | 9.6 | 0.07 | 0.32 | 0.07 | 94 | 1006.5 |
| 20260507012907 | 49 | 328 | 5.2 | 9.6 | 0.07 | 0.32 | 0.07 | 94 | 1006.4 |
| 20260507012812 | 49 | 329 | 5.2 | 9.6 | 0.07 | 0.32 | 0.07 | 94 | 1006.3 |
| 20260507012805 | 49 | 330 | 5.2 | 9.6 | 0.07 | 0.32 | 0.07 | 94 | 1006.3 |
| 20260507012704 | 49 | 332 | 5.2 | 9.6 | 0.07 | 0.32 | 0.07 | 94 | 1006.5 |
| 20260507012504 | 49 | 331 | 5.2 | 8.7 | 0.07 | 0.32 | 0.07 | 93 | 1006.4 |
| 20260507012404 | 49 | 332 | 5.2 | 8.7 | 0.07 | 0.32 | 0.07 | 93 | 1006.4 |
| 20260507012306 | 49 | 333 | 5.2 | 8.7 | 0.07 | 0.32 | 0.07 | 93 | 1006.3 |
| 20260507012205 | 49 | 334 | 5.2 | 8.7 | 0.07 | 0.32 | 0.07 | 93 | 1006.4 |
| 20260507012105 | 49 | 336 | 5.2 | 8.7 | 0.07 | 0.32 | 0.07 | 93 | 1006.3 |
| 20260507012005 | 50 | 338 | 4.3 | 8.7 | 0.07 | 0.32 | 0.07 | 93 | 1006.4 |
| 20260507011905 | 50 | 339 | 4.3 | 8.7 | 0.07 | 0.32 | 0.07 | 93 | 1006.3 |
| 20260507011815 | 50 | 338 | 4.3 | 8.7 | 0.07 | 0.32 | 0.07 | 93 | 1006.5 |
| 20260507011805 | 50 | 338 | 4.3 | 7.8 | 0.07 | 0.32 | 0.07 | 93 | 1006.5 |
| 20260507011705 | 50 | 339 | 4.3 | 7.8 | 0.07 | 0.32 | 0.07 | 93 | 1006.3 |
| 20260507011612 | 50 | 341 | 4.3 | 7.8 | 0.07 | 0.32 | 0.07 | 93 | 1006.4 |
| 20260507011509 | 50 | 344 | 4.3 | 7.8 | 0.07 | 0.32 | 0.07 | 93 | 1006.4 |
| 20260507011212 | 50 | 343 | 3.5 | 7.0 | 0.07 | 0.32 | 0.07 | 93 | 1006.3 |
| 20260507011204 | 50 | 342 | 3.5 | 7.0 | 0.07 | 0.32 | 0.07 | 93 | 1006.3 |
| 20260507011104 | 50 | 338 | 3.5 | 7.0 | 0.07 | 0.31 | 0.07 | 93 | 1006.3 |
| 20260507010912 | 50 | 334 | 3.5 | 7.0 | 0.07 | 0.31 | 0.07 | 93 | 1006.3 |
| 20260507010904 | 50 | 333 | 3.5 | 7.0 | 0.07 | 0.31 | 0.07 | 93 | 1006.3 |
| 20260507010804 | 50 | 333 | 3.5 | 7.0 | 0.06 | 0.31 | 0.06 | 93 | 1006.4 |
| 20260507010604 | 50 | 331 | 3.5 | 7.0 | 0.05 | 0.30 | 0.05 | 93 | 1006.5 |
| 20260507010504 | 50 | 330 | 3.5 | 7.0 | 0.03 | 0.28 | 0.03 | 93 | 1006.3 |
| 20260507010405 | 50 | 330 | 3.5 | 7.0 | 0.03 | 0.28 | 0.03 | 93 | 1006.5 |
| 20260507010305 | 50 | 332 | 3.5 | 7.0 | 0.01 | 0.26 | 0.01 | 93 | 1006.4 |
| 20260507010105 | 50 | 340 | 3.5 | 7.8 | 0.01 | 0.26 | 0.01 | 93 | 1006.5 |
| 20260507010006 | 50 | 341 | 4.3 | 7.8 | 0.01 | 0.26 | 0.01 | 93 | 1006.3 |
| 20260507005904 | 50 | 344 | 4.3 | 7.8 | 0.01 | 0.26 | 0.01 | 93 | 1006.4 |
| 20260507005804 | 50 | 346 | 4.3 | 7.8 | 0.01 | 0.26 | 0.01 | 93 | 1006.4 |
| 20260507005704 | 50 | 347 | 4.3 | 7.8 | 0.01 | 0.26 | 0.01 | 93 | 1006.2 |
| 20260507005604 | 50 | 347 | 4.3 | 7.8 | 0.01 | 0.26 | 0.01 | 93 | 1006.4 |
| 20260507005504 | 50 | 347 | 4.3 | 7.8 | 0.01 | 0.26 | 0.01 | 93 | 1006.2 |
| 20260507005404 | 50 | 347 | 4.3 | 7.8 | 0.01 | 0.26 | 0.01 | 93 | 1006.3 |
| 20260507005305 | 50 | 346 | 4.3 | 7.8 | 0.01 | 0.26 | 0.01 | 93 | 1006.2 |
| 20260507005204 | 50 | 346 | 4.3 | 7.0 | 0.01 | 0.26 | 0.01 | 93 | 1006.4 |
| 20260507005104 | 50 | 347 | 4.3 | 7.0 | 0.01 | 0.26 | 0.01 | 93 | 1006.3 |
| 20260507005004 | 50 | 348 | 4.3 | 6.1 | 0.01 | 0.26 | 0.01 | 93 | 1006.2 |
| 20260507004904 | 50 | 348 | 4.3 | 6.1 | 0.01 | 0.26 | 0.01 | 93 | 1006.3 |
| 20260507004804 | 51 | 347 | 4.3 | 6.1 | 0.01 | 0.26 | 0.01 | 93 | 1006.4 |
| 20260507004704 | 51 | 347 | 3.5 | 6.1 | 0.01 | 0.26 | 0.01 | 92 | 1006.2 |
| 20260507004611 | 51 | 347 | 3.5 | 6.1 | 0.01 | 0.26 | 0.01 | 92 | 1006.3 |
| 20260507004504 | 51 | 348 | 3.5 | 6.1 | 0.01 | 0.26 | 0.01 | 92 | 1006.2 |
| 20260507004304 | 51 | 345 | 3.5 | 7.8 | 0.00 | 0.25 | 0.00 | 92 | 1006.3 |
| 20260507004204 | 51 | 344 | 3.5 | 7.8 | 0.00 | 0.25 | 0.00 | 92 | 1006.3 |
| 20260507004104 | 51 | 341 | 3.5 | 7.8 | 0.00 | 0.25 | 0.00 | 92 | 1006.3 |
| 20260507003904 | 51 | 339 | 3.5 | 7.8 | 0.00 | 0.25 | 0.00 | 92 | 1006.3 |
| 20260507003804 | 51 | 338 | 3.5 | 7.8 | 0.00 | 0.25 | 0.00 | 92 | 1006.3 |
| 20260507003704 | 51 | 336 | 3.5 | 7.8 | 0.00 | 0.25 | 0.00 | 92 | 1006.3 |
| 20260507003604 | 51 | 334 | 3.5 | 7.8 | 0.00 | 0.25 | 0.00 | 92 | 1006.4 |
| 20260507003504 | 51 | 333 | 3.5 | 7.8 | 0.00 | 0.25 | 0.00 | 92 | 1006.4 |
| 20260507003411 | 51 | 334 | 3.5 | 6.1 | 0.00 | 0.25 | 0.00 | 92 | 1006.3 |
| 20260507003404 | 51 | 335 | 3.5 | 6.1 | 0.00 | 0.25 | 0.00 | 92 | 1006.3 |
| 20260507003304 | 51 | 336 | 3.5 | 6.1 | 0.00 | 0.25 | 0.00 | 92 | 1006.2 |
| 20260507003211 | 51 | 337 | 3.5 | 6.1 | 0.00 | 0.26 | 0.00 | 92 | 1006.2 |
| 20260507003104 | 51 | 337 | 2.6 | 6.1 | 0.00 | 0.26 | 0.00 | 92 | 1006.1 |
| 20260507003011 | 51 | 337 | 2.6 | 6.1 | 0.00 | 0.25 | 0.00 | 92 | 1006.1 |
| 20260507002904 | 51 | 336 | 2.6 | 6.1 | 0.00 | 0.25 | 0.00 | 92 | 1006.1 |
| 20260507002704 | 51 | 335 | 1.7 | 5.2 | 0.00 | 0.25 | 0.00 | 91 | 1006.1 |
| 20260507002604 | 51 | 334 | 1.7 | 5.2 | 0.00 | 0.25 | 0.00 | 91 | 1006.2 |
| 20260507002504 | 51 | 332 | 1.7 | 3.5 | 0.00 | 0.25 | 0.00 | 91 | 1006.3 |
| 20260507002404 | 51 | 332 | 1.7 | 3.5 | 0.00 | 0.25 | 0.00 | 91 | 1006.1 |
| 20260507002311 | 51 | 328 | 1.7 | 2.6 | 0.00 | 0.25 | 0.00 | 91 | 1006.2 |
| 20260507002306 | 51 | 327 | 1.7 | 2.6 | 0.00 | 0.25 | 0.00 | 91 | 1006.2 |
| 20260507002204 | 51 | 325 | 1.7 | 2.6 | 0.00 | 0.25 | 0.00 | 91 | 1006.1 |
| 20260507002004 | 51 | 324 | 1.7 | 2.6 | 0.00 | 0.25 | 0.00 | 91 | 1006.1 |
| 20260507001904 | 51 | 321 | 1.7 | 2.6 | 0.00 | 0.25 | 0.00 | 91 | 1006.2 |
| 20260507001804 | 51 | 319 | 1.7 | 2.6 | 0.00 | 0.25 | 0.00 | 91 | 1006.0 |
| 20260507001705 | 51 | 318 | 0.9 | 2.6 | 0.00 | 0.25 | 0.00 | 91 | 1006.0 |
| 20260507001604 | 51 | 319 | 0.9 | 2.6 | 0.00 | 0.25 | 0.00 | 91 | 1006.2 |
| 20260507001504 | 51 | 319 | 0.9 | 2.6 | 0.00 | 0.25 | 0.00 | 91 | 1006.3 |
| 20260507001404 | 51 | 317 | 0.9 | 2.6 | 0.00 | 0.25 | 0.00 | 91 | 1006.1 |
| 20260507001304 | 51 | 316 | 0.9 | 2.6 | 0.00 | 0.25 | 0.00 | 91 | 1006.2 |
| 20260507001104 | 51 | 302 | 0.9 | 2.6 | 0.00 | 0.25 | 0.00 | 91 | 1006.2 |
| 20260507001011 | 51 | 299 | 0.0 | 2.6 | 0.00 | 0.25 | 0.00 | 91 | 1006.3 |
| 20260507001004 | 51 | 296 | 0.0 | 2.6 | 0.00 | 0.25 | 0.00 | 91 | 1006.3 |
| 20260507000904 | 51 | 297 | 0.0 | 2.6 | 0.00 | 0.25 | 0.00 | 90 | 1006.3 |
| 20260507000704 | 51 | 0 | 0.0 | 0.0 | 0.00 | 0.25 | 0.00 | 90 | 1006.1 |
| 20260507000604 | 51 | 0 | 0.0 | 0.0 | 0.00 | 0.25 | 0.00 | 90 | 1006.2 |
| 20260507000505 | 51 | 0 | 0.0 | 0.0 | 0.00 | 0.25 | 0.00 | 90 | 1006.3 |
| 20260507000405 | 51 | 0 | 0.0 | 0.0 | 0.00 | 0.25 | 0.00 | 90 | 1006.0 |
| 20260507000205 | 50 | 0 | 0.0 | 0.0 | 0.00 | 0.25 | 0.00 | 90 | 1006.1 |
| 20260507000104 | 50 | 0 | 0.0 | 0.0 | 0.00 | 0.25 | 0.00 | 90 | 1006.2 |
| 20260506235904 | 50 | 0 | 0.0 | 0.0 | 0.00 | 0.25 | 0.00 | 90 | 1006.0 |
| 20260506235804 | 50 | 0 | 0.0 | 0.0 | 0.00 | 0.25 | 0.00 | 90 | 1006.1 |
| 20260506235711 | 50 | 0 | 0.0 | 0.0 | 0.00 | 0.25 | 0.00 | 90 | 1006.1 |
| 20260506235604 | 50 | 0 | 0.0 | 0.0 | 0.00 | 0.25 | 0.00 | 90 | 1006.3 |
| 20260506235306 | 50 | 0 | 0.0 | 0.0 | 0.00 | 0.25 | 0.00 | 90 | 1006.2 |
| 20260506235205 | 50 | 0 | 0.0 | 0.0 | 0.00 | 0.25 | 0.00 | 90 | 1006.2 |
| 20260506235104 | 50 | 0 | 0.0 | 0.0 | 0.00 | 0.25 | 0.00 | 90 | 1006.3 |
| 20260506235004 | 50 | 0 | 0.0 | 0.0 | 0.00 | 0.25 | 0.00 | 90 | 1006.1 |
| 20260506234904 | 50 | 0 | 0.0 | 0.0 | 0.00 | 0.25 | 0.00 | 90 | 1006.2 |
| 20260506234804 | 50 | 0 | 0.0 | 0.0 | 0.00 | 0.25 | 0.00 | 90 | 1006.1 |
| 20260506234704 | 50 | 0 | 0.0 | 0.0 | 0.00 | 0.25 | 0.00 | 90 | 1006.1 |
| 20260506234604 | 50 | 0 | 0.0 | 0.0 | 0.00 | 0.25 | 0.00 | 90 | 1006.1 |
| 20260506234404 | 50 | 0 | 0.0 | 0.0 | 0.00 | 0.25 | 0.00 | 90 | 1006.2 |
| 20260506234304 | 50 | 0 | 0.0 | 0.0 | 0.00 | 0.25 | 0.00 | 90 | 1006.3 |
| 20260506234204 | 50 | 0 | 0.0 | 0.0 | 0.00 | 0.25 | 0.00 | 90 | 1006.3 |
| 20260506234104 | 50 | 0 | 0.0 | 0.0 | 0.00 | 0.25 | 0.00 | 90 | 1006.1 |
| 20260506234004 | 50 | 0 | 0.0 | 0.0 | 0.00 | 0.25 | 0.00 | 90 | 1006.3 |
| 20260506233904 | 50 | 0 | 0.0 | 0.0 | 0.00 | 0.25 | 0.00 | 90 | 1006.3 |
| 20260506233804 | 51 | 0 | 0.0 | 0.0 | 0.00 | 0.25 | 0.00 | 90 | 1006.1 |
| 20260506233704 | 51 | 0 | 0.0 | 0.0 | 0.00 | 0.25 | 0.00 | 90 | 1006.4 |
| 20260506233604 | 51 | 0 | 0.0 | 0.0 | 0.00 | 0.25 | 0.00 | 90 | 1006.3 |
| 20260506233504 | 51 | 0 | 0.0 | 0.0 | 0.00 | 0.25 | 0.00 | 90 | 1006.3 |
| 20260506233404 | 51 | 0 | 0.0 | 0.0 | 0.00 | 0.25 | 0.00 | 90 | 1006.2 |
| 20260506233311 | 51 | 0 | 0.0 | 0.0 | 0.00 | 0.25 | 0.00 | 90 | 1006.2 |
| 20260506233204 | 51 | 0 | 0.0 | 0.0 | 0.00 | 0.25 | 0.00 | 90 | 1006.3 |
| 20260506233004 | 51 | 0 | 0.0 | 0.0 | 0.00 | 0.25 | 0.00 | 90 | 1006.2 |
| 20260506232904 | 51 | 0 | 0.0 | 0.0 | 0.00 | 0.25 | 0.00 | 90 | 1006.2 |
| 20260506232804 | 51 | 0 | 0.0 | 0.0 | 0.00 | 0.25 | 0.00 | 90 | 1006.0 |
| 20260506232604 | 51 | 0 | 0.0 | 0.0 | 0.00 | 0.25 | 0.00 | 90 | 1006.2 |
| 20260506232504 | 51 | 0 | 0.0 | 0.0 | 0.00 | 0.25 | 0.00 | 90 | 1006.1 |
| 20260506232404 | 51 | 0 | 0.0 | 0.0 | 0.00 | 0.25 | 0.00 | 90 | 1006.2 |
| 20260506232306 | 51 | 0 | 0.0 | 0.0 | 0.00 | 0.25 | 0.00 | 90 | 1006.1 |
| 20260506232104 | 51 | 0 | 0.0 | 0.0 | 0.00 | 0.25 | 0.00 | 90 | 1006.1 |
| 20260506232004 | 51 | 0 | 0.0 | 0.0 | 0.00 | 0.26 | 0.00 | 90 | 1006.1 |
| 20260506231904 | 51 | 0 | 0.0 | 0.0 | 0.00 | 0.26 | 0.00 | 90 | 1006.1 |
| 20260506231804 | 51 | 0 | 0.0 | 0.0 | 0.00 | 0.26 | 0.00 | 90 | 1006.0 |
| 20260506231704 | 51 | 0 | 0.0 | 0.0 | 0.00 | 0.26 | 0.00 | 89 | 1006.0 |
| 20260506231604 | 51 | 0 | 0.0 | 0.0 | 0.00 | 0.26 | 0.00 | 89 | 1005.9 |
| 20260506231305 | 51 | 0 | 0.0 | 0.0 | 0.00 | 0.26 | 0.00 | 89 | 1006.1 |
| 20260506231204 | 51 | 0 | 0.0 | 0.0 | 0.00 | 0.26 | 0.00 | 89 | 1005.9 |
| 20260506231104 | 51 | 0 | 0.0 | 0.0 | 0.00 | 0.26 | 0.00 | 89 | 1006.1 |
| 20260506230904 | 51 | 0 | 0.0 | 0.0 | 0.00 | 0.26 | 0.00 | 89 | 1006.1 |
| 20260506230804 | 51 | 0 | 0.0 | 0.0 | 0.00 | 0.26 | 0.00 | 89 | 1005.9 |
| 20260506230704 | 51 | 0 | 0.0 | 0.0 | 0.00 | 0.26 | 0.00 | 89 | 1006.1 |
| 20260506230611 | 51 | 0 | 0.0 | 0.0 | 0.00 | 0.26 | 0.00 | 89 | 1006.0 |
| 20260506230504 | 51 | 0 | 0.0 | 0.0 | 0.00 | 0.26 | 0.00 | 89 | 1006.1 |
| 20260506230204 | 52 | 0 | 0.0 | 0.0 | 0.00 | 0.26 | 0.00 | 90 | 1006.1 |
| 20260506230104 | 52 | 0 | 0.0 | 0.0 | 0.00 | 0.26 | 0.00 | 90 | 1006.1 |
| 20260506230004 | 52 | 0 | 0.0 | 0.0 | 0.00 | 0.26 | 0.00 | 90 | 1006.2 |
| 20260506225904 | 52 | 0 | 0.0 | 0.0 | 0.00 | 0.26 | 0.00 | 90 | 1005.9 |
| 20260506225804 | 52 | 0 | 0.0 | 0.0 | 0.00 | 0.26 | 0.00 | 90 | 1006.2 |
| 20260506225704 | 52 | 0 | 0.0 | 0.0 | 0.00 | 0.26 | 0.00 | 90 | 1006.0 |
| 20260506225604 | 52 | 0 | 0.0 | 0.0 | 0.00 | 0.26 | 0.00 | 90 | 1006.2 |
| 20260506225504 | 52 | 0 | 0.0 | 0.0 | 0.00 | 0.26 | 0.00 | 89 | 1006.1 |
| 20260506225404 | 52 | 0 | 0.0 | 0.0 | 0.00 | 0.26 | 0.00 | 89 | 1006.0 |
| 20260506225204 | 52 | 0 | 0.0 | 0.0 | 0.00 | 0.26 | 0.00 | 89 | 1006.1 |
| 20260506225104 | 52 | 0 | 0.0 | 0.0 | 0.00 | 0.26 | 0.00 | 89 | 1006.2 |
| 20260506225004 | 52 | 0 | 0.0 | 0.0 | 0.00 | 0.26 | 0.00 | 89 | 1006.3 |
| 20260506224904 | 52 | 0 | 0.0 | 0.0 | 0.00 | 0.27 | 0.00 | 89 | 1006.0 |
| 20260506224804 | 52 | 0 | 0.0 | 0.0 | 0.00 | 0.27 | 0.00 | 89 | 1006.2 |
| 20260506224704 | 52 | 0 | 0.0 | 0.0 | 0.00 | 0.27 | 0.00 | 89 | 1006.0 |
| 20260506224604 | 52 | 0 | 0.0 | 0.0 | 0.00 | 0.27 | 0.00 | 89 | 1005.9 |
| 20260506224504 | 52 | 0 | 0.0 | 0.0 | 0.00 | 0.27 | 0.00 | 89 | 1006.2 |
| 20260506224404 | 52 | 0 | 0.0 | 0.0 | 0.00 | 0.27 | 0.00 | 89 | 1006.3 |
| 20260506224304 | 52 | 0 | 0.0 | 0.0 | 0.00 | 0.27 | 0.00 | 89 | 1006.0 |
| 20260506224204 | 52 | 0 | 0.0 | 0.0 | 0.00 | 0.28 | 0.00 | 89 | 1006.0 |
| 20260506224104 | 52 | 0 | 0.0 | 0.0 | 0.00 | 0.28 | 0.00 | 89 | 1006.0 |
| 20260506224004 | 52 | 0 | 0.0 | 0.0 | 0.00 | 0.28 | 0.00 | 89 | 1006.0 |
| 20260506223804 | 52 | 0 | 0.0 | 0.0 | 0.00 | 0.28 | 0.00 | 89 | 1006.0 |
| 20260506223705 | 52 | 0 | 0.0 | 0.0 | 0.00 | 0.28 | 0.00 | 89 | 1005.9 |
| 20260506223606 | 52 | 0 | 0.0 | 0.0 | 0.00 | 0.28 | 0.00 | 89 | 1005.9 |
| 20260506223404 | 52 | 0 | 0.0 | 0.0 | 0.00 | 0.28 | 0.00 | 89 | 1005.9 |
| 20260506223304 | 52 | 0 | 0.0 | 0.0 | 0.00 | 0.29 | 0.00 | 89 | 1006.0 |
| 20260506223204 | 52 | 0 | 0.0 | 0.0 | 0.00 | 0.29 | 0.00 | 89 | 1006.0 |
| 20260506223004 | 52 | 0 | 0.0 | 0.0 | 0.00 | 0.29 | 0.00 | 89 | 1005.9 |
| 20260506222904 | 52 | 0 | 0.0 | 0.0 | 0.00 | 0.29 | 0.00 | 89 | 1006.1 |
| 20260506222704 | 52 | 0 | 0.0 | 0.0 | 0.00 | 0.29 | 0.00 | 89 | 1006.0 |
| 20260506222604 | 52 | 0 | 0.0 | 0.0 | 0.00 | 0.29 | 0.00 | 89 | 1006.1 |
| 20260506222504 | 52 | 0 | 0.0 | 0.0 | 0.00 | 0.29 | 0.00 | 89 | 1005.9 |
| 20260506222404 | 52 | 0 | 0.0 | 0.0 | 0.00 | 0.29 | 0.00 | 89 | 1006.2 |
| 20260506222306 | 52 | 0 | 0.0 | 0.0 | 0.01 | 0.30 | 0.00 | 89 | 1006.1 |
| 20260506222204 | 52 | 0 | 0.0 | 0.0 | 0.01 | 0.30 | 0.00 | 89 | 1005.8 |
| 20260506222104 | 52 | 0 | 0.0 | 0.0 | 0.01 | 0.30 | 0.00 | 89 | 1006.1 |
| 20260506222004 | 52 | 0 | 0.0 | 0.0 | 0.01 | 0.30 | 0.00 | 89 | 1006.1 |
| 20260506221904 | 52 | 0 | 0.0 | 0.0 | 0.01 | 0.30 | 0.00 | 89 | 1006.0 |
| 20260506221804 | 52 | 0 | 0.0 | 0.0 | 0.01 | 0.30 | 0.00 | 89 | 1006.0 |
| 20260506221712 | 52 | 0 | 0.0 | 0.0 | 0.02 | 0.30 | 0.00 | 89 | 1005.9 |
| 20260506221604 | 52 | 0 | 0.0 | 0.0 | 0.02 | 0.30 | 0.00 | 89 | 1006.0 |
| 20260506221404 | 52 | 0 | 0.0 | 0.0 | 0.02 | 0.30 | 0.00 | 89 | 1006.0 |
| 20260506221304 | 52 | 0 | 0.0 | 0.0 | 0.03 | 0.30 | 0.00 | 89 | 1005.9 |
| 20260506221204 | 52 | 0 | 0.0 | 0.0 | 0.03 | 0.30 | 0.00 | 89 | 1006.0 |
| 20260506220904 | 52 | 0 | 0.0 | 0.0 | 0.04 | 0.31 | 0.00 | 89 | 1006.0 |
| 20260506220804 | 52 | 0 | 0.0 | 0.0 | 0.04 | 0.31 | 0.00 | 89 | 1006.1 |
| 20260506220704 | 52 | 0 | 0.0 | 0.0 | 0.05 | 0.31 | 0.00 | 89 | 1005.9 |
| 20260506220604 | 52 | 0 | 0.0 | 0.0 | 0.06 | 0.31 | 0.00 | 89 | 1005.9 |
| 20260506220504 | 52 | 0 | 0.0 | 0.0 | 0.07 | 0.31 | 0.00 | 89 | 1005.9 |
| 20260506220404 | 52 | 0 | 0.0 | 0.0 | 0.07 | 0.31 | 0.00 | 89 | 1006.1 |
| 20260506220206 | 52 | 0 | 0.0 | 0.0 | 0.08 | 0.32 | 0.00 | 89 | 1006.0 |
| 20260506220106 | 52 | 0 | 0.0 | 0.0 | 0.08 | 0.32 | 0.00 | 89 | 1006.0 |
| 20260506220049 | 52 | 0 | 0.0 | 0.0 | 0.09 | 0.32 | 0.00 | 89 | 1006.0 |
| 20260506215904 | 52 | 0 | 0.0 | 0.0 | 0.09 | 0.33 | 0.32 | 89 | 1006.1 |
| 20260506215804 | 52 | 0 | 0.0 | 0.0 | 0.09 | 0.33 | 0.32 | 89 | 1006.0 |
| 20260506215604 | 52 | 0 | 0.0 | 0.0 | 0.10 | 0.33 | 0.32 | 89 | 1005.9 |
| 20260506215504 | 52 | 0 | 0.0 | 0.0 | 0.11 | 0.33 | 0.32 | 89 | 1005.9 |
| 20260506215404 | 52 | 252 | 0.0 | 0.9 | 0.12 | 0.33 | 0.32 | 89 | 1006.1 |
| 20260506215306 | 53 | 249 | 0.0 | 1.7 | 0.13 | 0.34 | 0.32 | 89 | 1006.2 |
| 20260506215204 | 52 | 248 | 0.0 | 1.7 | 0.17 | 0.34 | 0.32 | 89 | 1005.9 |
| 20260506215006 | 53 | 248 | 0.0 | 1.7 | 0.18 | 0.35 | 0.32 | 89 | 1006.0 |
| 20260506214904 | 53 | 248 | 0.0 | 1.7 | 0.19 | 0.35 | 0.32 | 89 | 1006.2 |
| 20260506214804 | 53 | 248 | 0.0 | 1.7 | 0.19 | 0.36 | 0.32 | 89 | 1006.1 |
| 20260506214704 | 53 | 248 | 0.0 | 1.7 | 0.19 | 0.36 | 0.32 | 89 | 1006.0 |
| 20260506214604 | 53 | 244 | 0.0 | 1.7 | 0.19 | 0.37 | 0.32 | 89 | 1006.0 |
| 20260506214504 | 53 | 239 | 0.0 | 1.7 | 0.19 | 0.36 | 0.32 | 89 | 1006.0 |
| 20260506214304 | 52 | 225 | 0.0 | 1.7 | 0.19 | 0.37 | 0.32 | 89 | 1005.9 |
| 20260506214204 | 52 | 223 | 0.9 | 2.6 | 0.19 | 0.37 | 0.32 | 89 | 1006.0 |
| 20260506214104 | 52 | 224 | 0.9 | 2.6 | 0.19 | 0.37 | 0.32 | 89 | 1006.0 |
| 20260506214004 | 52 | 223 | 0.9 | 2.6 | 0.19 | 0.38 | 0.32 | 89 | 1005.9 |
| 20260506213906 | 52 | 222 | 0.9 | 3.5 | 0.19 | 0.38 | 0.32 | 89 | 1005.8 |
| 20260506213804 | 52 | 224 | 1.7 | 3.5 | 0.19 | 0.39 | 0.32 | 89 | 1005.9 |
| 20260506213711 | 52 | 225 | 1.7 | 5.2 | 0.19 | 0.39 | 0.32 | 89 | 1006.0 |
| 20260506213604 | 52 | 226 | 1.7 | 5.2 | 0.19 | 0.40 | 0.32 | 89 | 1006.0 |
| 20260506213404 | 52 | 228 | 1.7 | 5.2 | 0.19 | 0.41 | 0.32 | 89 | 1005.8 |
| 20260506213304 | 52 | 230 | 1.7 | 5.2 | 0.19 | 0.43 | 0.32 | 89 | 1006.0 |
| 20260506213204 | 52 | 231 | 1.7 | 5.2 | 0.19 | 0.44 | 0.32 | 89 | 1006.1 |
| 20260506213104 | 52 | 231 | 1.7 | 5.2 | 0.19 | 0.44 | 0.32 | 89 | 1005.9 |
| 20260506213011 | 52 | 233 | 1.7 | 5.2 | 0.19 | 0.44 | 0.32 | 89 | 1006.1 |
| 20260506212904 | 52 | 235 | 1.7 | 5.2 | 0.19 | 0.46 | 0.32 | 89 | 1006.0 |
| 20260506212706 | 52 | 236 | 0.9 | 3.5 | 0.19 | 0.47 | 0.32 | 89 | 1006.1 |
| 20260506212604 | 52 | 241 | 0.9 | 3.5 | 0.20 | 0.48 | 0.32 | 89 | 1006.1 |
| 20260506212504 | 52 | 249 | 0.9 | 3.5 | 0.20 | 0.48 | 0.32 | 89 | 1006.0 |
| 20260506212306 | 52 | 282 | 0.9 | 2.6 | 0.20 | 0.49 | 0.31 | 89 | 1006.0 |
| 20260506212204 | 52 | 286 | 0.9 | 3.5 | 0.20 | 0.50 | 0.31 | 89 | 1006.1 |
| 20260506212104 | 52 | 285 | 0.9 | 3.5 | 0.20 | 0.50 | 0.31 | 89 | 1005.8 |
| 20260506211904 | 52 | 291 | 0.9 | 3.5 | 0.20 | 0.51 | 0.31 | 89 | 1005.8 |
| 20260506211804 | 52 | 292 | 1.7 | 3.5 | 0.20 | 0.51 | 0.31 | 89 | 1005.9 |
| 20260506211704 | 52 | 292 | 1.7 | 3.5 | 0.19 | 0.51 | 0.31 | 89 | 1005.9 |
| 20260506211604 | 52 | 292 | 1.7 | 3.5 | 0.20 | 0.51 | 0.31 | 89 | 1006.0 |
| 20260506211404 | 52 | 294 | 0.9 | 3.5 | 0.19 | 0.52 | 0.30 | 88 | 1006.0 |
| 20260506211304 | 52 | 291 | 0.9 | 3.5 | 0.18 | 0.51 | 0.29 | 88 | 1005.9 |
| 20260506211204 | 52 | 293 | 0.9 | 3.5 | 0.19 | 0.52 | 0.29 | 88 | 1005.9 |
| 20260506211104 | 52 | 296 | 0.9 | 2.6 | 0.19 | 0.53 | 0.29 | 88 | 1006.0 |
| 20260506211004 | 52 | 298 | 0.9 | 2.6 | 0.18 | 0.53 | 0.29 | 88 | 1005.8 |
| 20260506210804 | 52 | 298 | 0.9 | 3.5 | 0.17 | 0.53 | 0.28 | 88 | 1005.8 |
| 20260506210704 | 52 | 299 | 0.9 | 3.5 | 0.17 | 0.54 | 0.28 | 88 | 1005.9 |
| 20260506210604 | 52 | 301 | 0.9 | 3.5 | 0.16 | 0.53 | 0.26 | 88 | 1005.8 |
| 20260506210504 | 52 | 302 | 0.9 | 3.5 | 0.15 | 0.53 | 0.26 | 88 | 1005.8 |
| 20260506210413 | 53 | 296 | 0.9 | 3.5 | 0.17 | 0.53 | 0.26 | 88 | 1005.8 |
| 20260506210404 | 53 | 295 | 0.9 | 3.5 | 0.17 | 0.53 | 0.26 | 88 | 1005.8 |
| 20260506210304 | 53 | 289 | 0.9 | 3.5 | 0.17 | 0.53 | 0.25 | 88 | 1005.9 |
| 20260506210005 | 53 | 270 | 1.7 | 6.1 | 0.15 | 0.52 | 0.23 | 88 | 1005.9 |
| 20260506205904 | 53 | 265 | 1.7 | 6.1 | 0.15 | 0.53 | 0.23 | 88 | 1005.8 |
| 20260506205804 | 53 | 261 | 2.6 | 6.1 | 0.14 | 0.54 | 0.23 | 88 | 1005.9 |
| 20260506205704 | 53 | 258 | 2.6 | 6.1 | 0.13 | 0.53 | 0.22 | 88 | 1005.8 |
| 20260506205604 | 53 | 257 | 2.6 | 6.1 | 0.13 | 0.54 | 0.22 | 88 | 1006.1 |
| 20260506205504 | 53 | 255 | 2.6 | 6.1 | 0.13 | 0.54 | 0.21 | 88 | 1006.1 |
| 20260506205404 | 53 | 258 | 1.7 | 6.1 | 0.12 | 0.53 | 0.20 | 88 | 1006.1 |
| 20260506205306 | 53 | 260 | 1.7 | 6.1 | 0.11 | 0.53 | 0.19 | 88 | 1005.8 |
| 20260506205204 | 53 | 265 | 1.7 | 5.2 | 0.07 | 0.50 | 0.15 | 88 | 1005.9 |
| 20260506205104 | 53 | 271 | 1.7 | 3.5 | 0.07 | 0.50 | 0.15 | 88 | 1006.0 |
| 20260506205004 | 53 | 275 | 1.7 | 3.5 | 0.06 | 0.50 | 0.15 | 88 | 1006.0 |
| 20260506204904 | 53 | 281 | 0.9 | 3.5 | 0.05 | 0.50 | 0.14 | 88 | 1006.0 |
| 20260506204804 | 53 | 285 | 0.9 | 2.6 | 0.05 | 0.50 | 0.13 | 88 | 1006.2 |
| 20260506204704 | 53 | 291 | 0.9 | 2.6 | 0.05 | 0.50 | 0.13 | 88 | 1005.9 |
| 20260506204604 | 53 | 291 | 0.9 | 1.7 | 0.05 | 0.50 | 0.13 | 88 | 1005.8 |
| 20260506204504 | 53 | 298 | 0.9 | 1.7 | 0.05 | 0.52 | 0.13 | 88 | 1006.0 |
| 20260506204404 | 53 | 302 | 0.9 | 2.6 | 0.05 | 0.52 | 0.13 | 88 | 1005.9 |
| 20260506204305 | 53 | 306 | 0.9 | 2.6 | 0.05 | 0.53 | 0.13 | 88 | 1006.0 |
| 20260506204204 | 53 | 307 | 0.9 | 2.6 | 0.05 | 0.53 | 0.13 | 88 | 1006.0 |
| 20260506204104 | 53 | 310 | 0.9 | 2.6 | 0.05 | 0.54 | 0.13 | 88 | 1006.0 |
| 20260506204004 | 53 | 314 | 0.9 | 2.6 | 0.05 | 0.54 | 0.13 | 88 | 1005.8 |
| 20260506203804 | 53 | 327 | 0.9 | 2.6 | 0.05 | 0.55 | 0.13 | 88 | 1005.9 |
| 20260506203704 | 53 | 327 | 1.7 | 2.6 | 0.05 | 0.55 | 0.13 | 88 | 1006.1 |
| 20260506203604 | 53 | 330 | 1.7 | 2.6 | 0.05 | 0.56 | 0.13 | 88 | 1005.8 |
| 20260506203504 | 53 | 332 | 1.7 | 3.5 | 0.05 | 0.56 | 0.13 | 88 | 1005.9 |
| 20260506203304 | 53 | 334 | 1.7 | 3.5 | 0.05 | 0.57 | 0.13 | 88 | 1005.9 |
| 20260506203204 | 53 | 336 | 1.7 | 3.5 | 0.05 | 0.57 | 0.13 | 88 | 1006.0 |
| 20260506203104 | 53 | 334 | 1.7 | 3.5 | 0.04 | 0.57 | 0.13 | 88 | 1005.9 |
| 20260506203004 | 53 | 334 | 1.7 | 3.5 | 0.04 | 0.57 | 0.13 | 88 | 1005.9 |
| 20260506202904 | 53 | 332 | 1.7 | 3.5 | 0.04 | 0.57 | 0.13 | 88 | 1005.8 |
| 20260506202804 | 53 | 326 | 1.7 | 3.5 | 0.04 | 0.58 | 0.13 | 88 | 1005.9 |
| 20260506202505 | 53 | 320 | 1.7 | 3.5 | 0.03 | 0.58 | 0.12 | 87 | 1005.8 |
| 20260506202404 | 53 | 321 | 1.7 | 3.5 | 0.03 | 0.59 | 0.12 | 87 | 1005.8 |
| 20260506202204 | 53 | 322 | 1.7 | 5.2 | 0.03 | 0.60 | 0.12 | 87 | 1005.9 |
| 20260506202104 | 53 | 322 | 1.7 | 5.2 | 0.03 | 0.61 | 0.12 | 87 | 1005.8 |
| 20260506202004 | 53 | 319 | 1.7 | 5.2 | 0.03 | 0.61 | 0.11 | 87 | 1005.9 |
| 20260506201804 | 53 | 324 | 1.7 | 5.2 | 0.03 | 0.63 | 0.11 | 87 | 1006.0 |
| 20260506201704 | 53 | 325 | 2.6 | 5.2 | 0.03 | 0.64 | 0.11 | 87 | 1005.6 |
| 20260506201604 | 53 | 324 | 2.6 | 5.2 | 0.02 | 0.64 | 0.11 | 87 | 1005.9 |
| 20260506201506 | 53 | 323 | 2.6 | 5.2 | 0.02 | 0.65 | 0.11 | 87 | 1005.8 |
| 20260506201404 | 53 | 321 | 1.7 | 5.2 | 0.02 | 0.66 | 0.11 | 87 | 1005.9 |
| 20260506201304 | 53 | 318 | 1.7 | 5.2 | 0.02 | 0.67 | 0.11 | 87 | 1005.8 |
| 20260506201205 | 53 | 311 | 1.7 | 5.2 | 0.02 | 0.67 | 0.11 | 87 | 1005.9 |
| 20260506201104 | 53 | 306 | 1.7 | 5.2 | 0.02 | 0.68 | 0.11 | 87 | 1005.6 |
| 20260506201004 | 53 | 306 | 1.7 | 5.2 | 0.02 | 0.69 | 0.11 | 86 | 1005.8 |
| 20260506200904 | 53 | 297 | 1.7 | 5.2 | 0.02 | 0.69 | 0.11 | 86 | 1005.5 |
| 20260506200805 | 53 | 286 | 1.7 | 3.5 | 0.02 | 0.70 | 0.11 | 86 | 1005.8 |
| 20260506200711 | 53 | 280 | 0.9 | 3.5 | 0.02 | 0.71 | 0.11 | 86 | 1005.6 |
| 20260506200704 | 53 | 279 | 0.9 | 3.5 | 0.02 | 0.71 | 0.11 | 86 | 1005.6 |
| 20260506200604 | 53 | 274 | 0.9 | 3.5 | 0.02 | 0.71 | 0.11 | 85 | 1005.4 |
| 20260506200411 | 53 | 265 | 0.9 | 3.5 | 0.00 | 0.72 | 0.09 | 85 | 1005.6 |
| 20260506200404 | 53 | 264 | 0.9 | 3.5 | 0.00 | 0.72 | 0.09 | 85 | 1005.6 |
| 20260506200304 | 53 | 257 | 0.9 | 3.5 | 0.00 | 0.72 | 0.09 | 85 | 1005.5 |
| 20260506200104 | 53 | 251 | 0.9 | 3.5 | 0.00 | 0.74 | 0.09 | 85 | 1005.5 |
| 20260506200005 | 53 | 250 | 0.9 | 3.5 | 0.00 | 0.74 | 0.09 | 85 | 1005.4 |
| 20260506195904 | 53 | 247 | 0.9 | 3.5 | 0.00 | 0.74 | 0.09 | 85 | 1005.4 |
| 20260506195805 | 53 | 248 | 0.9 | 3.5 | 0.00 | 0.74 | 0.09 | 85 | 1005.6 |
| 20260506195704 | 53 | 248 | 0.9 | 3.5 | 0.00 | 0.75 | 0.09 | 85 | 1005.5 |
| 20260506195604 | 53 | 249 | 0.9 | 3.5 | 0.00 | 0.75 | 0.09 | 85 | 1005.5 |
| 20260506195412 | 53 | 252 | 1.7 | 3.5 | 0.00 | 0.77 | 0.09 | 85 | 1005.6 |
| 20260506195404 | 53 | 253 | 1.7 | 3.5 | 0.00 | 0.77 | 0.09 | 85 | 1005.6 |
| 20260506195306 | 53 | 252 | 1.7 | 3.5 | 0.00 | 0.77 | 0.09 | 85 | 1005.5 |
| 20260506195104 | 53 | 262 | 1.7 | 3.5 | 0.00 | 0.78 | 0.09 | 85 | 1005.4 |
| 20260506195004 | 53 | 265 | 1.7 | 3.5 | 0.00 | 0.79 | 0.09 | 85 | 1005.3 |
| 20260506194904 | 53 | 269 | 1.7 | 3.5 | 0.00 | 0.79 | 0.09 | 85 | 1005.5 |
| 20260506194804 | 53 | 273 | 1.7 | 3.5 | 0.00 | 0.80 | 0.09 | 85 | 1005.5 |
| 20260506194711 | 53 | 278 | 1.7 | 3.5 | 0.00 | 0.80 | 0.09 | 85 | 1005.3 |
| 20260506194704 | 53 | 279 | 1.7 | 3.5 | 0.00 | 0.80 | 0.09 | 85 | 1005.3 |
| 20260506194605 | 53 | 281 | 1.7 | 3.5 | 0.00 | 0.81 | 0.09 | 85 | 1005.2 |
| 20260506194412 | 53 | 290 | 1.7 | 3.5 | 0.00 | 0.81 | 0.09 | 85 | 1005.4 |
| 20260506194304 | 53 | 295 | 1.7 | 3.5 | 0.00 | 0.81 | 0.09 | 84 | 1005.4 |
| 20260506194104 | 53 | 303 | 1.7 | 3.5 | 0.00 | 0.82 | 0.09 | 84 | 1005.3 |
| 20260506194004 | 53 | 303 | 1.7 | 3.5 | 0.00 | 0.82 | 0.09 | 84 | 1005.3 |
| 20260506193904 | 53 | 305 | 2.6 | 3.5 | 0.00 | 0.82 | 0.09 | 84 | 1005.4 |
| 20260506193804 | 53 | 306 | 2.6 | 3.5 | 0.00 | 0.83 | 0.09 | 84 | 1005.4 |
| 20260506193704 | 53 | 309 | 2.6 | 6.1 | 0.00 | 0.83 | 0.09 | 84 | 1005.3 |
| 20260506193604 | 53 | 305 | 2.6 | 6.1 | 0.00 | 0.84 | 0.09 | 84 | 1005.3 |
| 20260506193504 | 53 | 306 | 2.6 | 6.1 | 0.00 | 0.84 | 0.09 | 84 | 1005.2 |
| 20260506193404 | 53 | 307 | 2.6 | 6.1 | 0.00 | 0.84 | 0.09 | 84 | 1005.2 |
| 20260506193304 | 53 | 307 | 2.6 | 6.1 | 0.00 | 0.85 | 0.09 | 84 | 1005.1 |
| 20260506193211 | 53 | 309 | 2.6 | 6.1 | 0.00 | 0.85 | 0.09 | 84 | 1005.1 |
| 20260506193104 | 53 | 312 | 2.6 | 7.0 | 0.00 | 0.86 | 0.09 | 84 | 1005.3 |
| 20260506192904 | 53 | 324 | 3.5 | 8.7 | 0.00 | 0.87 | 0.09 | 84 | 1005.2 |
| 20260506192804 | 53 | 329 | 4.3 | 8.7 | 0.00 | 0.87 | 0.09 | 84 | 1005.3 |
| 20260506192712 | 53 | 331 | 4.3 | 8.7 | 0.00 | 0.87 | 0.09 | 84 | 1005.3 |
| 20260506192704 | 53 | 330 | 4.3 | 8.7 | 0.00 | 0.87 | 0.09 | 84 | 1005.3 |
| 20260506192604 | 53 | 333 | 4.3 | 8.7 | 0.00 | 0.88 | 0.09 | 84 | 1005.2 |
| 20260506192404 | 53 | 336 | 5.2 | 8.7 | 0.00 | 0.89 | 0.09 | 84 | 1005.3 |
| 20260506192305 | 53 | 340 | 5.2 | 8.7 | 0.00 | 0.89 | 0.09 | 84 | 1005.1 |
| 20260506192204 | 53 | 342 | 5.2 | 8.7 | 0.00 | 0.89 | 0.09 | 84 | 1005.3 |
| 20260506192104 | 53 | 344 | 5.2 | 8.7 | 0.00 | 0.90 | 0.09 | 84 | 1005.2 |
| 20260506192004 | 54 | 345 | 5.2 | 8.7 | 0.00 | 0.90 | 0.09 | 84 | 1005.2 |
| 20260506191904 | 54 | 343 | 4.3 | 7.8 | 0.00 | 0.90 | 0.09 | 83 | 1005.0 |
| 20260506191804 | 54 | 342 | 4.3 | 7.8 | 0.00 | 0.90 | 0.09 | 83 | 1005.0 |
| 20260506191704 | 54 | 342 | 3.5 | 7.8 | 0.00 | 0.91 | 0.09 | 83 | 1005.1 |
| 20260506191604 | 54 | 348 | 3.5 | 7.8 | 0.00 | 0.91 | 0.09 | 83 | 1005.1 |
| 20260506191511 | 54 | 354 | 2.6 | 7.8 | 0.00 | 0.91 | 0.09 | 83 | 1005.0 |
| 20260506191504 | 54 | 355 | 2.6 | 7.8 | 0.00 | 0.91 | 0.09 | 83 | 1005.0 |
| 20260506191404 | 54 | 356 | 1.7 | 7.8 | 0.00 | 0.92 | 0.09 | 82 | 1005.1 |
| 20260506191204 | 54 | 356 | 0.9 | 6.1 | 0.00 | 0.92 | 0.09 | 81 | 1005.0 |
| 20260506191104 | 55 | 356 | 0.0 | 2.6 | 0.00 | 0.93 | 0.09 | 80 | 1005.1 |
| 20260506191004 | 55 | 356 | 0.0 | 2.6 | 0.00 | 0.93 | 0.09 | 79 | 1005.0 |
| 20260506190904 | 55 | 0 | 0.0 | 0.0 | 0.00 | 0.93 | 0.09 | 79 | 1004.8 |
| 20260506190804 | 55 | 0 | 0.0 | 0.0 | 0.00 | 0.93 | 0.09 | 79 | 1005.0 |
| 20260506190704 | 55 | 0 | 0.0 | 0.0 | 0.00 | 0.93 | 0.09 | 78 | 1004.8 |
| 20260506190405 | 55 | 234 | 0.0 | 3.5 | 0.00 | 0.94 | 0.09 | 78 | 1004.7 |
| 20260506190304 | 55 | 235 | 0.9 | 6.1 | 0.00 | 0.94 | 0.09 | 78 | 1004.7 |
| 20260506190204 | 55 | 227 | 0.9 | 6.1 | 0.00 | 0.94 | 0.09 | 78 | 1004.7 |
| 20260506190006 | 55 | 228 | 1.7 | 7.0 | 0.00 | 0.95 | 0.09 | 78 | 1004.7 |
| 20260506185904 | 55 | 226 | 2.6 | 7.0 | 0.00 | 0.95 | 0.09 | 78 | 1004.5 |
| 20260506185804 | 55 | 224 | 2.6 | 7.0 | 0.00 | 0.95 | 0.09 | 78 | 1004.6 |
| 20260506185704 | 55 | 220 | 2.6 | 7.0 | 0.00 | 0.95 | 0.09 | 78 | 1004.5 |
| 20260506185605 | 55 | 218 | 3.5 | 7.0 | 0.00 | 0.96 | 0.09 | 78 | 1004.5 |
| 20260506185504 | 55 | 216 | 3.5 | 7.0 | 0.00 | 0.96 | 0.09 | 78 | 1004.5 |
| 20260506185404 | 55 | 214 | 3.5 | 7.0 | 0.00 | 0.96 | 0.09 | 78 | 1004.3 |
| 20260506185307 | 55 | 211 | 3.5 | 7.0 | 0.00 | 0.96 | 0.09 | 78 | 1004.4 |
| 20260506185105 | 56 | 210 | 3.5 | 7.8 | 0.00 | 0.96 | 0.09 | 77 | 1004.5 |
| 20260506185004 | 56 | 209 | 3.5 | 7.8 | 0.00 | 0.96 | 0.09 | 77 | 1004.4 |
| 20260506184905 | 56 | 208 | 3.5 | 7.8 | 0.00 | 0.96 | 0.09 | 77 | 1004.2 |
| 20260506184805 | 56 | 208 | 3.5 | 7.8 | 0.00 | 0.97 | 0.09 | 77 | 1004.2 |
| 20260506184705 | 56 | 210 | 3.5 | 7.8 | 0.00 | 0.97 | 0.09 | 77 | 1004.1 |
| 20260506184605 | 56 | 212 | 3.5 | 7.8 | 0.00 | 0.97 | 0.09 | 77 | 1004.1 |
| 20260506184505 | 56 | 214 | 3.5 | 7.8 | 0.00 | 0.97 | 0.09 | 77 | 1004.2 |
| 20260506184405 | 56 | 215 | 3.5 | 7.8 | 0.00 | 0.97 | 0.09 | 77 | 1004.1 |
| 20260506184305 | 56 | 213 | 3.5 | 7.8 | 0.00 | 0.97 | 0.09 | 77 | 1004.3 |
| 20260506184204 | 56 | 213 | 3.5 | 7.8 | 0.00 | 0.97 | 0.09 | 77 | 1004.2 |
| 20260506184104 | 56 | 211 | 3.5 | 7.0 | 0.00 | 0.97 | 0.09 | 77 | 1004.3 |
| 20260506184007 | 56 | 213 | 3.5 | 7.0 | 0.00 | 0.97 | 0.09 | 77 | 1004.1 |
| 20260506183906 | 56 | 215 | 3.5 | 7.0 | 0.00 | 0.97 | 0.09 | 77 | 1004.1 |
| 20260506183804 | 56 | 215 | 3.5 | 7.8 | 0.00 | 0.97 | 0.09 | 77 | 1004.2 |
| 20260506183613 | 56 | 215 | 4.3 | 7.8 | 0.00 | 0.97 | 0.09 | 77 | 1004.2 |
| 20260506183604 | 56 | 214 | 4.3 | 7.8 | 0.00 | 0.97 | 0.09 | 77 | 1004.2 |
| 20260506183504 | 56 | 214 | 4.3 | 7.8 | 0.00 | 0.97 | 0.09 | 77 | 1004.1 |
| 20260506183313 | 56 | 216 | 4.3 | 12.2 | 0.00 | 0.97 | 0.09 | 77 | 1004.2 |
| 20260506183206 | 56 | 216 | 5.2 | 12.2 | 0.00 | 0.97 | 0.09 | 77 | 1004.0 |
| 20260506183005 | 56 | 215 | 5.2 | 12.2 | 0.00 | 0.97 | 0.09 | 77 | 1003.8 |
| 20260506182904 | 56 | 214 | 5.2 | 12.2 | 0.00 | 0.97 | 0.09 | 77 | 1004.0 |
| 20260506182804 | 56 | 214 | 5.2 | 12.2 | 0.00 | 0.97 | 0.09 | 77 | 1003.9 |
| 20260506182704 | 56 | 215 | 5.2 | 12.2 | 0.00 | 0.97 | 0.09 | 77 | 1003.8 |
| 20260506182604 | 56 | 214 | 5.2 | 12.2 | 0.00 | 0.97 | 0.09 | 77 | 1003.8 |
| 20260506182504 | 56 | 214 | 5.2 | 12.2 | 0.00 | 0.97 | 0.09 | 77 | 1003.9 |
| 20260506182307 | 56 | 216 | 5.2 | 9.6 | 0.00 | 0.98 | 0.09 | 77 | 1003.7 |
| 20260506182205 | 56 | 217 | 5.2 | 9.6 | 0.00 | 0.98 | 0.09 | 78 | 1003.9 |
| 20260506182106 | 56 | 216 | 4.3 | 9.6 | 0.00 | 0.98 | 0.09 | 78 | 1003.8 |
| 20260506182004 | 56 | 215 | 4.3 | 9.6 | 0.00 | 0.98 | 0.09 | 78 | 1003.9 |
| 20260506181904 | 56 | 217 | 4.3 | 7.8 | 0.00 | 0.98 | 0.09 | 78 | 1003.7 |
| 20260506181705 | 56 | 217 | 4.3 | 8.7 | 0.00 | 0.98 | 0.09 | 78 | 1003.8 |
| 20260506181604 | 56 | 217 | 4.3 | 8.7 | 0.00 | 0.98 | 0.09 | 78 | 1003.7 |
| 20260506181504 | 56 | 217 | 4.3 | 8.7 | 0.00 | 0.98 | 0.09 | 78 | 1003.7 |
| 20260506181404 | 56 | 215 | 3.5 | 8.7 | 0.00 | 0.98 | 0.09 | 78 | 1003.7 |
| 20260506181304 | 56 | 211 | 3.5 | 8.7 | 0.00 | 0.98 | 0.09 | 78 | 1003.8 |
| 20260506181204 | 56 | 210 | 3.5 | 8.7 | 0.00 | 0.98 | 0.09 | 78 | 1003.8 |
| 20260506181104 | 56 | 210 | 3.5 | 8.7 | 0.00 | 0.98 | 0.09 | 78 | 1003.9 |
| 20260506181005 | 56 | 207 | 2.6 | 8.7 | 0.00 | 0.98 | 0.09 | 78 | 1003.9 |
| 20260506180904 | 56 | 205 | 2.6 | 8.7 | 0.00 | 0.98 | 0.09 | 78 | 1003.8 |
| 20260506180804 | 56 | 204 | 2.6 | 7.8 | 0.01 | 0.98 | 0.09 | 78 | 1003.7 |
| 20260506180704 | 56 | 206 | 3.5 | 7.8 | 0.01 | 0.98 | 0.09 | 78 | 1004.0 |
| 20260506180604 | 56 | 208 | 3.5 | 7.8 | 0.01 | 0.98 | 0.09 | 78 | 1003.8 |
| 20260506180505 | 56 | 209 | 4.3 | 7.8 | 0.01 | 0.99 | 0.09 | 78 | 1003.7 |
| 20260506180405 | 56 | 211 | 4.3 | 7.8 | 0.01 | 0.99 | 0.09 | 78 | 1003.8 |
| 20260506180305 | 56 | 213 | 5.2 | 7.8 | 0.01 | 0.99 | 0.09 | 78 | 1003.7 |
| 20260506180205 | 56 | 214 | 5.2 | 7.8 | 0.01 | 0.99 | 0.09 | 78 | 1003.9 |
| 20260506180106 | 56 | 216 | 5.2 | 7.8 | 0.01 | 0.99 | 0.09 | 78 | 1003.7 |
| 20260506180011 | 56 | 217 | 5.2 | 7.8 | 0.01 | 0.99 | 0.09 | 78 | 1003.8 |
| 20260506175905 | 56 | 214 | 6.1 | 7.8 | 0.01 | 0.99 | 0.09 | 78 | 1003.7 |
| 20260506175811 | 56 | 212 | 6.1 | 7.8 | 0.01 | 0.99 | 0.09 | 78 | 1003.7 |
| 20260506175711 | 56 | 209 | 6.1 | 7.8 | 0.01 | 0.99 | 0.09 | 78 | 1003.6 |
| 20260506175704 | 56 | 208 | 6.1 | 7.8 | 0.01 | 0.99 | 0.09 | 78 | 1003.6 |
| 20260506175511 | 56 | 201 | 6.1 | 7.8 | 0.01 | 0.99 | 0.09 | 79 | 1003.8 |
| 20260506175404 | 56 | 199 | 6.1 | 7.8 | 0.01 | 0.99 | 0.09 | 79 | 1003.6 |
| 20260506175204 | 56 | 192 | 5.2 | 7.8 | 0.01 | 0.99 | 0.09 | 79 | 1003.6 |
| 20260506175104 | 56 | 188 | 6.1 | 7.8 | 0.01 | 1.00 | 0.09 | 79 | 1003.6 |
| 20260506175004 | 56 | 188 | 6.1 | 9.6 | 0.01 | 1.00 | 0.09 | 79 | 1003.6 |
| 20260506174911 | 56 | 189 | 5.2 | 9.6 | 0.01 | 1.00 | 0.09 | 79 | 1003.8 |
| 20260506174904 | 56 | 190 | 5.2 | 9.6 | 0.01 | 1.00 | 0.09 | 79 | 1003.8 |
| 20260506174604 | 56 | 190 | 5.2 | 9.6 | 0.01 | 1.00 | 0.09 | 79 | 1003.6 |
| 20260506174504 | 56 | 190 | 5.2 | 9.6 | 0.01 | 1.00 | 0.09 | 80 | 1003.7 |
| 20260506174404 | 56 | 189 | 5.2 | 9.6 | 0.01 | 1.00 | 0.09 | 80 | 1003.8 |
| 20260506174305 | 56 | 189 | 5.2 | 9.6 | 0.01 | 1.00 | 0.09 | 80 | 1003.8 |
| 20260506174106 | 56 | 196 | 5.2 | 9.6 | 0.01 | 1.00 | 0.09 | 80 | 1003.7 |
| 20260506174004 | 56 | 198 | 5.2 | 8.7 | 0.01 | 1.00 | 0.09 | 80 | 1003.6 |
| 20260506173904 | 56 | 198 | 5.2 | 8.7 | 0.01 | 1.00 | 0.09 | 80 | 1003.8 |
| 20260506173804 | 56 | 196 | 5.2 | 8.7 | 0.01 | 1.00 | 0.09 | 80 | 1003.9 |
| 20260506173704 | 56 | 197 | 5.2 | 8.7 | 0.01 | 1.00 | 0.09 | 80 | 1003.8 |
| 20260506173605 | 56 | 202 | 5.2 | 8.7 | 0.01 | 1.00 | 0.09 | 80 | 1003.9 |
| 20260506173411 | 56 | 209 | 5.2 | 7.8 | 0.01 | 1.00 | 0.09 | 80 | 1003.8 |
| 20260506173404 | 56 | 210 | 5.2 | 7.8 | 0.01 | 1.00 | 0.09 | 80 | 1003.8 |
| 20260506173304 | 56 | 218 | 5.2 | 7.0 | 0.01 | 1.00 | 0.09 | 79 | 1004.1 |
| 20260506173104 | 55 | 230 | 5.2 | 7.0 | 0.01 | 1.00 | 0.09 | 79 | 1003.9 |
| 20260506173004 | 55 | 231 | 5.2 | 7.0 | 0.01 | 1.00 | 0.09 | 79 | 1003.8 |
| 20260506172904 | 55 | 230 | 5.2 | 8.7 | 0.01 | 1.00 | 0.09 | 79 | 1003.9 |
| 20260506172805 | 55 | 232 | 5.2 | 13.0 | 0.01 | 1.00 | 0.09 | 79 | 1003.9 |
| 20260506172704 | 55 | 237 | 6.1 | 13.0 | 0.01 | 1.00 | 0.09 | 78 | 1004.1 |
| 20260506172604 | 55 | 236 | 6.1 | 13.0 | 0.01 | 1.00 | 0.09 | 78 | 1004.0 |
| 20260506172504 | 55 | 237 | 6.1 | 13.0 | 0.01 | 1.00 | 0.09 | 78 | 1004.1 |
| 20260506172404 | 55 | 235 | 7.0 | 13.0 | 0.01 | 1.00 | 0.09 | 78 | 1004.0 |
| 20260506172306 | 55 | 233 | 7.0 | 13.0 | 0.01 | 1.00 | 0.09 | 78 | 1003.9 |
| 20260506172211 | 55 | 230 | 7.0 | 13.0 | 0.01 | 1.00 | 0.09 | 78 | 1004.0 |
| 20260506172204 | 55 | 229 | 7.0 | 13.0 | 0.01 | 1.00 | 0.09 | 78 | 1004.0 |
| 20260506172105 | 55 | 225 | 7.8 | 13.0 | 0.01 | 1.00 | 0.09 | 78 | 1004.1 |
| 20260506171804 | 56 | 233 | 8.7 | 15.6 | 0.01 | 1.00 | 0.09 | 78 | 1003.9 |
| 20260506171712 | 56 | 230 | 8.7 | 16.5 | 0.00 | 1.00 | 0.08 | 77 | 1003.9 |
| 20260506171704 | 56 | 230 | 8.7 | 16.5 | 0.00 | 1.00 | 0.08 | 77 | 1003.9 |
| 20260506171604 | 56 | 232 | 8.7 | 16.5 | 0.00 | 1.00 | 0.08 | 76 | 1004.0 |
| 20260506171404 | 56 | 235 | 9.6 | 18.2 | 0.00 | 1.00 | 0.08 | 75 | 1003.9 |
| 20260506171304 | 57 | 234 | 10.4 | 18.2 | 0.00 | 1.00 | 0.08 | 75 | 1003.9 |
| 20260506171204 | 57 | 236 | 10.4 | 18.2 | 0.00 | 1.00 | 0.08 | 73 | 1003.9 |
| 20260506171105 | 57 | 236 | 10.4 | 22.6 | 0.00 | 1.00 | 0.08 | 73 | 1003.9 |
| 20260506171004 | 57 | 237 | 10.4 | 22.6 | 0.00 | 1.00 | 0.08 | 72 | 1004.0 |
| 20260506170904 | 58 | 234 | 10.4 | 22.6 | 0.00 | 1.00 | 0.08 | 72 | 1003.9 |
| 20260506170804 | 58 | 232 | 10.4 | 22.6 | 0.00 | 1.00 | 0.08 | 72 | 1003.9 |
| 20260506170705 | 58 | 232 | 9.6 | 22.6 | 0.00 | 1.00 | 0.08 | 71 | 1004.0 |
| 20260506170504 | 58 | 229 | 9.6 | 22.6 | 0.00 | 1.00 | 0.08 | 69 | 1004.0 |
| 20260506170404 | 58 | 228 | 9.6 | 22.6 | 0.00 | 1.00 | 0.08 | 68 | 1004.0 |
| 20260506170304 | 58 | 227 | 9.6 | 22.6 | 0.00 | 1.00 | 0.08 | 68 | 1003.9 |
| 20260506170204 | 58 | 227 | 8.7 | 22.6 | 0.00 | 1.00 | 0.08 | 68 | 1003.9 |
| 20260506170104 | 58 | 226 | 7.8 | 18.2 | 0.00 | 1.00 | 0.08 | 69 | 1004.0 |
| 20260506170005 | 58 | 225 | 7.8 | 15.6 | 0.00 | 1.00 | 0.08 | 69 | 1004.1 |
| 20260506165904 | 59 | 227 | 7.0 | 15.6 | 0.00 | 1.00 | 0.08 | 69 | 1004.1 |
| 20260506165804 | 59 | 228 | 7.0 | 15.6 | 0.00 | 1.00 | 0.08 | 69 | 1004.1 |
| 20260506165706 | 59 | 230 | 7.0 | 15.6 | 0.00 | 1.00 | 0.08 | 70 | 1004.0 |
| 20260506165604 | 59 | 231 | 7.0 | 15.6 | 0.00 | 1.00 | 0.08 | 70 | 1004.1 |
| 20260506165504 | 59 | 234 | 7.0 | 15.6 | 0.00 | 1.00 | 0.08 | 70 | 1003.9 |
| 20260506165404 | 59 | 237 | 6.1 | 13.9 | 0.00 | 1.00 | 0.08 | 70 | 1004.2 |
| 20260506165305 | 59 | 242 | 6.1 | 13.9 | 0.00 | 1.00 | 0.08 | 70 | 1004.2 |
| 20260506165204 | 59 | 244 | 6.1 | 13.9 | 0.00 | 1.00 | 0.08 | 69 | 1004.2 |
| 20260506165104 | 59 | 247 | 7.0 | 13.9 | 0.00 | 1.00 | 0.08 | 69 | 1004.1 |
| 20260506165011 | 59 | 251 | 7.0 | 13.9 | 0.00 | 1.00 | 0.08 | 69 | 1004.1 |
| 20260506165005 | 59 | 252 | 7.0 | 13.9 | 0.00 | 1.00 | 0.08 | 69 | 1004.1 |
| 20260506164904 | 60 | 253 | 7.0 | 13.9 | 0.00 | 1.00 | 0.08 | 69 | 1004.0 |
| 20260506164704 | 60 | 253 | 7.0 | 13.9 | 0.00 | 1.00 | 0.08 | 68 | 1004.0 |
| 20260506164604 | 60 | 254 | 6.1 | 13.0 | 0.00 | 1.00 | 0.08 | 67 | 1004.0 |
| 20260506164504 | 60 | 256 | 6.1 | 13.0 | 0.00 | 1.00 | 0.08 | 67 | 1004.0 |
| 20260506164404 | 61 | 255 | 6.1 | 13.0 | 0.00 | 1.00 | 0.08 | 67 | 1004.3 |
| 20260506164304 | 61 | 254 | 6.1 | 13.0 | 0.00 | 1.00 | 0.08 | 66 | 1004.0 |
| 20260506164204 | 61 | 250 | 5.2 | 13.0 | 0.00 | 1.00 | 0.08 | 66 | 1004.1 |
| 20260506164104 | 61 | 248 | 5.2 | 13.0 | 0.00 | 1.00 | 0.08 | 66 | 1003.9 |
| 20260506163911 | 62 | 243 | 3.5 | 12.2 | 0.00 | 1.00 | 0.08 | 67 | 1004.0 |
| 20260506163904 | 62 | 244 | 3.5 | 12.2 | 0.00 | 1.00 | 0.08 | 66 | 1004.0 |
| 20260506163805 | 62 | 244 | 3.5 | 11.3 | 0.00 | 1.00 | 0.08 | 66 | 1004.0 |
| 20260506163604 | 62 | 237 | 2.6 | 6.1 | 0.00 | 1.00 | 0.08 | 66 | 1003.7 |
| 20260506163504 | 62 | 239 | 2.6 | 8.7 | 0.00 | 1.00 | 0.08 | 66 | 1003.8 |
| 20260506163404 | 62 | 239 | 2.6 | 8.7 | 0.00 | 1.00 | 0.08 | 66 | 1003.8 |
| 20260506163305 | 62 | 235 | 2.6 | 8.7 | 0.00 | 1.00 | 0.08 | 66 | 1003.9 |
| 20260506163105 | 62 | 235 | 3.5 | 8.7 | 0.00 | 1.00 | 0.08 | 66 | 1003.8 |
| 20260506163004 | 62 | 233 | 3.5 | 9.6 | 0.00 | 1.00 | 0.08 | 65 | 1003.8 |
| 20260506162804 | 62 | 230 | 4.3 | 9.6 | 0.00 | 1.00 | 0.08 | 65 | 1003.9 |
| 20260506162704 | 62 | 230 | 4.3 | 9.6 | 0.00 | 1.00 | 0.08 | 65 | 1003.8 |
| 20260506162604 | 63 | 230 | 5.2 | 9.6 | 0.00 | 1.00 | 0.08 | 65 | 1003.8 |
| 20260506162504 | 63 | 227 | 5.2 | 9.6 | 0.00 | 1.00 | 0.08 | 65 | 1003.8 |
| 20260506162307 | 63 | 223 | 5.2 | 12.2 | 0.00 | 1.00 | 0.08 | 65 | 1003.7 |
| 20260506162204 | 63 | 222 | 5.2 | 12.2 | 0.00 | 1.00 | 0.08 | 65 | 1003.5 |
| 20260506162104 | 63 | 221 | 5.2 | 12.2 | 0.00 | 1.00 | 0.08 | 65 | 1003.9 |
| 20260506162011 | 63 | 220 | 5.2 | 13.0 | 0.00 | 1.00 | 0.08 | 65 | 1003.5 |
| 20260506162005 | 63 | 220 | 5.2 | 13.0 | 0.00 | 1.00 | 0.08 | 65 | 1003.5 |
| 20260506161904 | 63 | 217 | 5.2 | 13.0 | 0.00 | 1.00 | 0.08 | 65 | 1003.7 |
| 20260506161704 | 63 | 213 | 5.2 | 13.0 | 0.00 | 1.00 | 0.08 | 65 | 1003.7 |
| 20260506161604 | 63 | 210 | 4.3 | 13.0 | 0.00 | 1.00 | 0.08 | 65 | 1003.8 |
| 20260506161505 | 63 | 207 | 4.3 | 13.0 | 0.00 | 1.00 | 0.08 | 65 | 1003.6 |
| 20260506161404 | 63 | 205 | 4.3 | 13.0 | 0.00 | 1.00 | 0.08 | 65 | 1003.7 |
| 20260506161304 | 63 | 206 | 4.3 | 13.0 | 0.00 | 1.00 | 0.08 | 65 | 1003.8 |
| 20260506161104 | 64 | 203 | 4.3 | 13.0 | 0.00 | 1.00 | 0.08 | 65 | 1003.5 |
| 20260506161004 | 64 | 205 | 4.3 | 13.0 | 0.00 | 1.00 | 0.08 | 65 | 1003.7 |
| 20260506160911 | 64 | 207 | 4.3 | 9.6 | 0.00 | 1.00 | 0.08 | 66 | 1003.7 |
| 20260506160904 | 64 | 208 | 4.3 | 9.6 | 0.00 | 1.00 | 0.08 | 66 | 1003.7 |
| 20260506160804 | 64 | 209 | 4.3 | 9.6 | 0.00 | 1.00 | 0.08 | 66 | 1003.6 |
| 20260506160605 | 64 | 209 | 5.2 | 9.6 | 0.00 | 1.00 | 0.08 | 65 | 1003.5 |
| 20260506160511 | 64 | 212 | 5.2 | 9.6 | 0.00 | 1.00 | 0.08 | 65 | 1003.7 |
| 20260506160504 | 64 | 213 | 5.2 | 9.6 | 0.00 | 1.00 | 0.08 | 65 | 1003.7 |
| 20260506160404 | 64 | 215 | 5.2 | 9.6 | 0.00 | 1.00 | 0.08 | 66 | 1003.6 |
| 20260506160105 | 64 | 220 | 4.3 | 8.7 | 0.00 | 1.00 | 0.08 | 65 | 1003.6 |
| 20260506160006 | 64 | 217 | 4.3 | 8.7 | 0.00 | 1.00 | 0.08 | 65 | 1003.7 |
| 20260506155904 | 64 | 214 | 5.2 | 12.2 | 0.00 | 1.00 | 0.08 | 64 | 1003.7 |
| 20260506155704 | 64 | 216 | 5.2 | 14.8 | 0.00 | 1.00 | 0.08 | 65 | 1003.5 |
| 20260506155604 | 64 | 217 | 5.2 | 14.8 | 0.00 | 1.00 | 0.08 | 65 | 1003.7 |
| 20260506155504 | 64 | 216 | 5.2 | 14.8 | 0.00 | 1.00 | 0.08 | 65 | 1003.6 |
| 20260506155411 | 64 | 215 | 5.2 | 14.8 | 0.00 | 1.00 | 0.08 | 65 | 1003.5 |
| 20260506155306 | 64 | 215 | 5.2 | 14.8 | 0.00 | 1.00 | 0.08 | 64 | 1003.5 |
| 20260506155104 | 64 | 215 | 5.2 | 14.8 | 0.00 | 1.00 | 0.08 | 64 | 1003.5 |
| 20260506155004 | 64 | 216 | 5.2 | 14.8 | 0.00 | 1.00 | 0.08 | 64 | 1003.5 |
| 20260506154904 | 64 | 217 | 4.3 | 14.8 | 0.00 | 1.00 | 0.08 | 64 | 1003.5 |
| 20260506154804 | 64 | 220 | 4.3 | 13.0 | 0.00 | 1.00 | 0.08 | 65 | 1003.6 |
| 20260506154704 | 64 | 222 | 4.3 | 9.6 | 0.00 | 1.00 | 0.08 | 66 | 1003.7 |
| 20260506154604 | 64 | 223 | 3.5 | 9.6 | 0.00 | 1.00 | 0.08 | 66 | 1003.7 |
| 20260506154504 | 64 | 226 | 3.5 | 9.6 | 0.00 | 1.00 | 0.08 | 65 | 1003.7 |
| 20260506154204 | 63 | 238 | 4.3 | 9.6 | 0.00 | 1.00 | 0.08 | 67 | 1003.5 |
| 20260506154104 | 63 | 238 | 4.3 | 9.6 | 0.00 | 1.00 | 0.08 | 67 | 1003.6 |
| 20260506153904 | 63 | 239 | 4.3 | 9.6 | 0.00 | 1.00 | 0.08 | 67 | 1003.5 |
| 20260506153804 | 63 | 237 | 4.3 | 9.6 | 0.00 | 1.00 | 0.08 | 67 | 1003.5 |
| 20260506153704 | 63 | 238 | 4.3 | 8.7 | 0.00 | 1.00 | 0.08 | 67 | 1003.2 |
| 20260506153604 | 63 | 239 | 4.3 | 8.7 | 0.00 | 1.00 | 0.08 | 66 | 1003.5 |
| 20260506153404 | 63 | 238 | 4.3 | 8.7 | 0.00 | 1.00 | 0.08 | 66 | 1003.6 |
| 20260506153304 | 63 | 235 | 4.3 | 8.7 | 0.00 | 1.00 | 0.08 | 66 | 1003.5 |
| 20260506153204 | 63 | 231 | 4.3 | 9.6 | 0.00 | 1.00 | 0.08 | 66 | 1003.6 |
| 20260506153104 | 63 | 228 | 5.2 | 9.6 | 0.00 | 1.00 | 0.08 | 66 | 1003.7 |
| 20260506152904 | 63 | 227 | 5.2 | 11.3 | 0.00 | 1.00 | 0.08 | 66 | 1003.3 |
| 20260506152804 | 63 | 226 | 5.2 | 11.3 | 0.00 | 1.00 | 0.08 | 66 | 1003.5 |
| 20260506152711 | 64 | 222 | 5.2 | 14.8 | 0.00 | 1.00 | 0.08 | 66 | 1003.6 |
| 20260506152704 | 64 | 221 | 5.2 | 14.8 | 0.00 | 1.00 | 0.08 | 66 | 1003.6 |
| 20260506152611 | 64 | 216 | 5.2 | 14.8 | 0.00 | 1.00 | 0.08 | 66 | 1003.5 |
| 20260506152604 | 64 | 215 | 5.2 | 14.8 | 0.00 | 1.00 | 0.08 | 66 | 1003.5 |
| 20260506152311 | 64 | 208 | 6.1 | 14.8 | 0.00 | 1.00 | 0.08 | 66 | 1003.5 |
| 20260506152306 | 64 | 207 | 6.1 | 14.8 | 0.00 | 1.00 | 0.08 | 66 | 1003.5 |
| 20260506152204 | 64 | 205 | 6.1 | 14.8 | 0.00 | 1.00 | 0.08 | 65 | 1003.3 |
| 20260506152004 | 64 | 205 | 6.1 | 14.8 | 0.00 | 1.00 | 0.08 | 66 | 1003.5 |
| 20260506151904 | 64 | 204 | 6.1 | 14.8 | 0.00 | 1.00 | 0.08 | 66 | 1003.5 |
| 20260506151704 | 64 | 204 | 6.1 | 14.8 | 0.00 | 1.00 | 0.08 | 65 | 1003.5 |
| 20260506151612 | 64 | 206 | 6.1 | 13.9 | 0.00 | 1.00 | 0.08 | 65 | 1003.3 |
| 20260506151604 | 64 | 206 | 6.1 | 13.9 | 0.00 | 1.00 | 0.08 | 65 | 1003.3 |
| 20260506151504 | 64 | 206 | 6.1 | 13.9 | 0.00 | 1.00 | 0.08 | 65 | 1003.3 |
| 20260506151304 | 64 | 206 | 6.1 | 13.9 | 0.00 | 1.00 | 0.08 | 64 | 1003.5 |
| 20260506151204 | 64 | 207 | 6.1 | 13.9 | 0.00 | 1.00 | 0.08 | 64 | 1003.5 |
| 20260506151104 | 64 | 209 | 6.1 | 13.9 | 0.00 | 1.00 | 0.08 | 64 | 1003.6 |
| 20260506151006 | 65 | 204 | 6.1 | 13.9 | 0.00 | 1.00 | 0.08 | 64 | 1003.6 |
| 20260506150904 | 65 | 203 | 5.2 | 13.9 | 0.00 | 1.00 | 0.08 | 64 | 1003.5 |
| 20260506150804 | 65 | 206 | 6.1 | 14.8 | 0.00 | 1.00 | 0.08 | 63 | 1003.6 |
| 20260506150704 | 65 | 206 | 5.2 | 14.8 | 0.00 | 1.00 | 0.08 | 62 | 1003.1 |
| 20260506150604 | 65 | 209 | 5.2 | 14.8 | 0.00 | 1.00 | 0.08 | 62 | 1003.5 |
| 20260506150505 | 65 | 211 | 5.2 | 14.8 | 0.00 | 1.00 | 0.08 | 62 | 1003.5 |
| 20260506150404 | 65 | 212 | 6.1 | 14.8 | 0.00 | 1.00 | 0.08 | 61 | 1003.3 |
| 20260506150305 | 65 | 213 | 6.1 | 14.8 | 0.00 | 1.00 | 0.08 | 61 | 1003.2 |
| 20260506150204 | 65 | 217 | 6.1 | 14.8 | 0.00 | 1.00 | 0.08 | 59 | 1003.3 |
| 20260506150104 | 65 | 218 | 6.1 | 14.8 | 0.00 | 1.00 | 0.08 | 59 | 1003.3 |
| 20260506150005 | 66 | 219 | 6.1 | 14.8 | 0.00 | 1.00 | 0.08 | 59 | 1003.2 |
| 20260506145904 | 66 | 220 | 6.1 | 14.8 | 0.00 | 1.00 | 0.08 | 59 | 1003.5 |
| 20260506145804 | 66 | 220 | 5.2 | 13.0 | 0.00 | 1.00 | 0.08 | 60 | 1003.5 |
| 20260506145705 | 66 | 222 | 5.2 | 13.0 | 0.00 | 1.00 | 0.08 | 60 | 1003.6 |
| 20260506145604 | 66 | 217 | 5.2 | 13.0 | 0.00 | 1.00 | 0.08 | 59 | 1003.5 |
| 20260506145504 | 67 | 213 | 5.2 | 13.0 | 0.00 | 1.00 | 0.08 | 59 | 1003.3 |
| 20260506145404 | 67 | 211 | 5.2 | 13.0 | 0.00 | 1.00 | 0.08 | 59 | 1003.5 |
| 20260506145306 | 67 | 206 | 5.2 | 12.2 | 0.00 | 1.00 | 0.08 | 59 | 1003.3 |
| 20260506145204 | 67 | 198 | 4.3 | 12.2 | 0.00 | 1.00 | 0.08 | 60 | 1003.3 |
| 20260506145104 | 67 | 198 | 4.3 | 12.2 | 0.00 | 1.00 | 0.08 | 61 | 1003.5 |
| 20260506145004 | 67 | 199 | 3.5 | 12.2 | 0.00 | 1.00 | 0.08 | 62 | 1003.3 |
| 20260506144904 | 67 | 196 | 3.5 | 8.7 | 0.00 | 1.00 | 0.08 | 62 | 1003.6 |
| 20260506144804 | 66 | 198 | 3.5 | 8.7 | 0.00 | 1.00 | 0.08 | 62 | 1003.2 |
| 20260506144705 | 66 | 197 | 3.5 | 8.7 | 0.00 | 1.00 | 0.08 | 62 | 1003.2 |
| 20260506144604 | 66 | 201 | 2.6 | 8.7 | 0.00 | 1.00 | 0.08 | 62 | 1003.3 |
| 20260506144511 | 66 | 203 | 2.6 | 8.7 | 0.00 | 1.00 | 0.08 | 64 | 1003.3 |
| 20260506144504 | 66 | 202 | 3.5 | 8.7 | 0.00 | 1.00 | 0.08 | 64 | 1003.3 |
| 20260506144404 | 66 | 206 | 3.5 | 8.7 | 0.00 | 1.00 | 0.08 | 64 | 1003.6 |
| 20260506144205 | 65 | 207 | 2.6 | 8.7 | 0.00 | 1.00 | 0.08 | 60 | 1003.5 |
| 20260506144104 | 65 | 210 | 2.6 | 8.7 | 0.00 | 1.00 | 0.08 | 60 | 1003.5 |
| 20260506144004 | 65 | 212 | 3.5 | 8.7 | 0.00 | 1.00 | 0.08 | 61 | 1003.6 |
| 20260506143904 | 65 | 215 | 3.5 | 8.7 | 0.00 | 1.00 | 0.08 | 61 | 1003.3 |
| 20260506143812 | 65 | 224 | 2.6 | 8.7 | 0.00 | 1.00 | 0.08 | 63 | 1003.7 |
| 20260506143805 | 65 | 225 | 2.6 | 8.7 | 0.00 | 1.00 | 0.08 | 63 | 1003.7 |
| 20260506143704 | 65 | 232 | 2.6 | 7.0 | 0.00 | 1.00 | 0.08 | 62 | 1003.6 |
| 20260506143512 | 65 | 276 | 2.6 | 9.6 | 0.00 | 1.00 | 0.08 | 61 | 1003.3 |
| 20260506143504 | 65 | 278 | 2.6 | 9.6 | 0.00 | 1.00 | 0.08 | 61 | 1003.3 |
| 20260506143411 | 65 | 281 | 2.6 | 9.6 | 0.00 | 1.00 | 0.08 | 64 | 1003.6 |
| 20260506143404 | 65 | 281 | 2.6 | 9.6 | 0.00 | 1.00 | 0.08 | 64 | 1003.6 |
| 20260506143104 | 65 | 299 | 4.3 | 9.6 | 0.00 | 1.00 | 0.08 | 60 | 1003.5 |
| 20260506143011 | 65 | 307 | 4.3 | 9.6 | 0.00 | 1.00 | 0.08 | 60 | 1003.6 |
| 20260506143004 | 65 | 309 | 4.3 | 9.6 | 0.00 | 1.00 | 0.08 | 62 | 1003.6 |
| 20260506142911 | 65 | 315 | 4.3 | 9.6 | 0.00 | 1.00 | 0.08 | 62 | 1003.3 |
| 20260506142904 | 65 | 316 | 4.3 | 9.6 | 0.00 | 1.00 | 0.08 | 62 | 1003.3 |
| 20260506142604 | 66 | 336 | 5.2 | 9.6 | 0.00 | 1.00 | 0.08 | 63 | 1003.3 |
| 20260506142505 | 66 | 342 | 5.2 | 9.6 | 0.00 | 1.00 | 0.08 | 65 | 1003.2 |
| 20260506142411 | 66 | 346 | 4.3 | 9.6 | 0.00 | 1.00 | 0.08 | 64 | 1003.3 |
| 20260506142406 | 66 | 345 | 4.3 | 9.6 | 0.00 | 1.00 | 0.08 | 64 | 1003.3 |
| 20260506142306 | 66 | 351 | 4.3 | 9.6 | 0.00 | 1.00 | 0.08 | 64 | 1003.3 |
| 20260506142111 | 66 | 357 | 3.5 | 9.6 | 0.00 | 1.00 | 0.08 | 64 | 1003.3 |
| 20260506142104 | 66 | 358 | 3.5 | 9.6 | 0.00 | 1.00 | 0.08 | 64 | 1003.3 |
| 20260506142004 | 66 | 1 | 2.6 | 9.6 | 0.00 | 1.00 | 0.08 | 64 | 1003.5 |
| 20260506141804 | 66 | 9 | 1.7 | 8.7 | 0.00 | 1.00 | 0.08 | 62 | 1003.3 |
| 20260506141714 | 66 | 9 | 1.7 | 7.8 | 0.00 | 1.00 | 0.08 | 62 | 1003.3 |
| 20260506141705 | 66 | 4 | 1.7 | 7.8 | 0.00 | 1.00 | 0.08 | 64 | 1003.3 |
| 20260506141604 | 66 | 313 | 1.7 | 7.8 | 0.00 | 1.00 | 0.08 | 64 | 1003.6 |
| 20260506141406 | 66 | 229 | 1.7 | 5.2 | 0.00 | 1.00 | 0.08 | 59 | 1003.6 |
| 20260506141304 | 66 | 215 | 1.7 | 7.8 | 0.00 | 1.00 | 0.08 | 61 | 1003.7 |
| 20260506141204 | 66 | 210 | 1.7 | 7.8 | 0.00 | 1.00 | 0.08 | 59 | 1003.8 |
| 20260506141104 | 66 | 205 | 1.7 | 7.8 | 0.00 | 1.00 | 0.08 | 62 | 1003.6 |
| 20260506141004 | 66 | 203 | 1.7 | 7.8 | 0.00 | 1.00 | 0.08 | 60 | 1003.3 |
| 20260506140904 | 66 | 198 | 1.7 | 7.8 | 0.00 | 1.00 | 0.08 | 62 | 1003.5 |
| 20260506140806 | 66 | 194 | 1.7 | 7.8 | 0.00 | 1.00 | 0.08 | 62 | 1003.5 |
| 20260506140704 | 66 | 193 | 1.7 | 7.8 | 0.00 | 1.00 | 0.08 | 63 | 1003.6 |
| 20260506140604 | 65 | 181 | 1.7 | 7.8 | 0.00 | 1.00 | 0.08 | 63 | 1003.6 |
| 20260506140413 | 65 | 135 | 1.7 | 7.8 | 0.00 | 1.00 | 0.08 | 62 | 1003.8 |
| 20260506140406 | 65 | 126 | 1.7 | 7.8 | 0.00 | 1.00 | 0.08 | 62 | 1003.8 |
| 20260506140314 | 65 | 80 | 1.7 | 5.2 | 0.00 | 1.00 | 0.08 | 63 | 1003.7 |
| 20260506140305 | 65 | 75 | 1.7 | 5.2 | 0.00 | 1.00 | 0.08 | 63 | 1003.7 |
| 20260506140007 | 65 | 32 | 1.7 | 5.2 | 0.00 | 1.00 | 0.08 | 65 | 1003.5 |
| 20260506135906 | 65 | 14 | 1.7 | 6.1 | 0.00 | 1.00 | 0.08 | 64 | 1003.6 |
| 20260506135806 | 65 | 13 | 2.6 | 6.1 | 0.00 | 1.00 | 0.08 | 61 | 1003.7 |
| 20260506135711 | 65 | 13 | 2.6 | 6.1 | 0.00 | 1.00 | 0.08 | 61 | 1003.5 |
| 20260506135705 | 65 | 13 | 2.6 | 6.1 | 0.00 | 1.00 | 0.08 | 61 | 1003.5 |
| 20260506135604 | 65 | 9 | 2.6 | 6.1 | 0.00 | 1.00 | 0.08 | 64 | 1003.6 |
| 20260506135404 | 65 | 355 | 1.7 | 6.1 | 0.00 | 1.00 | 0.08 | 64 | 1003.8 |
| 20260506135306 | 65 | 346 | 0.9 | 6.1 | 0.00 | 1.00 | 0.08 | 62 | 1003.7 |
| 20260506135204 | 65 | 342 | 0.9 | 6.1 | 0.00 | 1.00 | 0.08 | 62 | 1003.5 |
| 20260506135104 | 65 | 340 | 0.9 | 6.1 | 0.00 | 1.00 | 0.08 | 62 | 1003.6 |
| 20260506135011 | 65 | 344 | 0.9 | 6.1 | 0.00 | 1.00 | 0.08 | 65 | 1003.9 |
| 20260506135004 | 65 | 348 | 0.9 | 6.1 | 0.00 | 1.00 | 0.08 | 65 | 1003.9 |
| 20260506134904 | 65 | 7 | 0.9 | 6.1 | 0.00 | 1.00 | 0.08 | 63 | 1003.7 |
| 20260506134713 | 65 | 0 | 0.0 | 0.0 | 0.00 | 1.00 | 0.08 | 61 | 1003.8 |
| 20260506134704 | 65 | 243 | 0.0 | 0.9 | 0.00 | 1.00 | 0.08 | 61 | 1003.8 |
| 20260506134604 | 65 | 246 | 0.0 | 5.2 | 0.00 | 1.00 | 0.08 | 61 | 1003.8 |
| 20260506134513 | 65 | 242 | 0.9 | 6.1 | 0.00 | 1.00 | 0.08 | 61 | 1003.7 |
| 20260506134406 | 65 | 242 | 0.9 | 6.1 | 0.00 | 1.00 | 0.08 | 61 | 1003.6 |
| 20260506134205 | 65 | 234 | 1.7 | 7.0 | 0.00 | 1.00 | 0.08 | 58 | 1003.8 |
| 20260506134106 | 65 | 234 | 1.7 | 7.0 | 0.00 | 1.00 | 0.08 | 59 | 1003.5 |
| 20260506133904 | 66 | 234 | 1.7 | 7.0 | 0.00 | 1.00 | 0.08 | 59 | 1003.7 |
| 20260506133804 | 66 | 232 | 1.7 | 7.0 | 0.00 | 1.00 | 0.08 | 57 | 1003.7 |
| 20260506133704 | 66 | 233 | 1.7 | 7.0 | 0.00 | 1.00 | 0.08 | 59 | 1003.6 |
| 20260506133604 | 66 | 235 | 1.7 | 7.0 | 0.00 | 1.00 | 0.08 | 61 | 1003.9 |
| 20260506133404 | 66 | 240 | 2.6 | 7.8 | 0.00 | 1.00 | 0.08 | 62 | 1003.8 |
| 20260506133306 | 66 | 241 | 2.6 | 7.8 | 0.00 | 1.00 | 0.08 | 64 | 1003.8 |
| 20260506133205 | 65 | 238 | 2.6 | 7.8 | 0.00 | 1.00 | 0.08 | 60 | 1003.7 |
| 20260506133104 | 66 | 236 | 2.6 | 7.8 | 0.00 | 1.00 | 0.08 | 60 | 1003.9 |
| 20260506133004 | 66 | 237 | 2.6 | 7.8 | 0.00 | 1.00 | 0.08 | 61 | 1003.7 |
| 20260506132904 | 66 | 238 | 2.6 | 7.8 | 0.00 | 1.00 | 0.08 | 62 | 1003.8 |
| 20260506132811 | 66 | 240 | 2.6 | 7.8 | 0.00 | 1.00 | 0.08 | 62 | 1003.6 |
| 20260506132704 | 66 | 243 | 2.6 | 7.8 | 0.00 | 1.00 | 0.08 | 61 | 1003.7 |
| 20260506132504 | 66 | 236 | 3.5 | 7.8 | 0.00 | 1.00 | 0.08 | 61 | 1003.6 |
| 20260506132404 | 66 | 235 | 2.6 | 7.8 | 0.00 | 1.00 | 0.08 | 62 | 1003.7 |
| 20260506132307 | 66 | 235 | 2.6 | 7.8 | 0.00 | 1.00 | 0.08 | 60 | 1003.8 |
| 20260506132204 | 66 | 238 | 2.6 | 7.8 | 0.00 | 1.00 | 0.08 | 61 | 1003.6 |
| 20260506132106 | 66 | 238 | 2.6 | 7.8 | 0.00 | 1.00 | 0.08 | 61 | 1003.7 |
| 20260506132005 | 66 | 232 | 3.5 | 11.3 | 0.00 | 1.00 | 0.08 | 59 | 1003.8 |
| 20260506131912 | 66 | 227 | 3.5 | 11.3 | 0.00 | 1.00 | 0.08 | 59 | 1003.9 |
| 20260506131904 | 66 | 226 | 3.5 | 11.3 | 0.00 | 1.00 | 0.08 | 59 | 1003.9 |
| 20260506131804 | 66 | 221 | 3.5 | 11.3 | 0.00 | 1.00 | 0.08 | 60 | 1003.9 |
| 20260506131606 | 67 | 209 | 5.2 | 15.6 | 0.00 | 1.00 | 0.08 | 60 | 1003.7 |
| 20260506131504 | 67 | 204 | 5.2 | 15.6 | 0.00 | 1.00 | 0.08 | 59 | 1003.9 |
| 20260506131404 | 67 | 204 | 5.2 | 15.6 | 0.00 | 1.00 | 0.08 | 60 | 1003.7 |
| 20260506131305 | 67 | 201 | 5.2 | 15.6 | 0.00 | 1.00 | 0.08 | 60 | 1003.9 |
| 20260506131206 | 67 | 197 | 5.2 | 15.6 | 0.00 | 1.00 | 0.08 | 58 | 1003.8 |
| 20260506131104 | 67 | 195 | 5.2 | 15.6 | 0.00 | 1.00 | 0.08 | 59 | 1003.9 |
| 20260506131004 | 67 | 198 | 5.2 | 15.6 | 0.00 | 1.00 | 0.08 | 60 | 1003.8 |
| 20260506130904 | 67 | 198 | 5.2 | 15.6 | 0.00 | 1.00 | 0.08 | 58 | 1003.9 |
| 20260506130804 | 67 | 198 | 5.2 | 15.6 | 0.00 | 1.00 | 0.08 | 58 | 1004.1 |
| 20260506130705 | 67 | 201 | 5.2 | 15.6 | 0.00 | 1.00 | 0.08 | 58 | 1003.9 |
| 20260506130604 | 67 | 202 | 4.3 | 11.3 | 0.00 | 1.00 | 0.08 | 60 | 1003.8 |
| 20260506130504 | 67 | 206 | 4.3 | 9.6 | 0.00 | 1.00 | 0.08 | 61 | 1003.9 |
| 20260506130404 | 67 | 206 | 4.3 | 9.6 | 0.00 | 1.00 | 0.08 | 60 | 1003.9 |
| 20260506130304 | 67 | 205 | 4.3 | 9.6 | 0.00 | 1.00 | 0.08 | 60 | 1003.7 |
| 20260506130204 | 67 | 207 | 4.3 | 9.6 | 0.00 | 1.00 | 0.08 | 58 | 1003.8 |
| 20260506130104 | 67 | 206 | 4.3 | 9.6 | 0.00 | 1.00 | 0.08 | 59 | 1003.9 |
| 20260506130006 | 67 | 206 | 5.2 | 12.2 | 0.00 | 1.00 | 0.08 | 58 | 1003.8 |
| 20260506125904 | 67 | 208 | 5.2 | 13.0 | 0.00 | 1.00 | 0.08 | 57 | 1003.8 |
| 20260506125804 | 67 | 209 | 5.2 | 13.0 | 0.00 | 1.00 | 0.08 | 58 | 1003.8 |
| 20260506125705 | 67 | 208 | 5.2 | 13.0 | 0.00 | 1.00 | 0.08 | 57 | 1003.9 |
| 20260506125604 | 67 | 206 | 6.1 | 13.9 | 0.00 | 1.00 | 0.08 | 57 | 1004.0 |
| 20260506125504 | 68 | 206 | 6.1 | 13.9 | 0.00 | 1.00 | 0.08 | 57 | 1003.9 |
| 20260506125405 | 68 | 201 | 6.1 | 13.9 | 0.00 | 1.00 | 0.08 | 57 | 1004.0 |
| 20260506125305 | 68 | 205 | 6.1 | 13.9 | 0.00 | 1.00 | 0.08 | 56 | 1003.9 |
| 20260506125204 | 68 | 207 | 7.0 | 13.9 | 0.00 | 1.00 | 0.08 | 57 | 1004.0 |
| 20260506125111 | 68 | 210 | 7.0 | 14.8 | 0.00 | 1.00 | 0.08 | 57 | 1004.0 |
| 20260506125104 | 68 | 211 | 7.8 | 14.8 | 0.00 | 1.00 | 0.08 | 57 | 1004.0 |
| 20260506125004 | 68 | 212 | 7.8 | 14.8 | 0.00 | 1.00 | 0.08 | 58 | 1003.8 |
| 20260506124804 | 67 | 213 | 7.0 | 14.8 | 0.00 | 1.00 | 0.08 | 57 | 1003.9 |
| 20260506124704 | 67 | 212 | 7.0 | 14.8 | 0.00 | 1.00 | 0.08 | 58 | 1004.0 |
| 20260506124604 | 67 | 216 | 7.0 | 14.8 | 0.00 | 1.00 | 0.08 | 58 | 1004.0 |
| 20260506124511 | 67 | 214 | 7.8 | 14.8 | 0.00 | 1.00 | 0.08 | 58 | 1004.0 |
| 20260506124504 | 67 | 215 | 7.8 | 14.8 | 0.00 | 1.00 | 0.08 | 58 | 1004.0 |
| 20260506124404 | 66 | 218 | 7.8 | 14.8 | 0.00 | 1.00 | 0.08 | 58 | 1004.0 |
| 20260506124204 | 66 | 222 | 7.0 | 14.8 | 0.00 | 1.00 | 0.08 | 59 | 1004.0 |
| 20260506124105 | 65 | 223 | 7.0 | 13.9 | 0.00 | 1.00 | 0.08 | 59 | 1003.8 |
| 20260506124004 | 65 | 225 | 6.1 | 13.9 | 0.00 | 1.00 | 0.08 | 60 | 1003.9 |
| 20260506123904 | 65 | 225 | 6.1 | 13.9 | 0.00 | 1.00 | 0.08 | 60 | 1003.9 |
| 20260506123804 | 65 | 224 | 7.0 | 13.9 | 0.00 | 1.00 | 0.08 | 60 | 1004.0 |
| 20260506123704 | 65 | 228 | 6.1 | 13.9 | 0.00 | 1.00 | 0.08 | 60 | 1003.9 |
| 20260506123504 | 65 | 232 | 6.1 | 13.9 | 0.00 | 1.00 | 0.08 | 60 | 1004.0 |
| 20260506123404 | 65 | 232 | 6.1 | 12.2 | 0.00 | 1.00 | 0.08 | 63 | 1003.9 |
| 20260506123304 | 65 | 233 | 6.1 | 12.2 | 0.00 | 1.00 | 0.08 | 63 | 1003.8 |
| 20260506123211 | 65 | 232 | 6.1 | 13.9 | 0.00 | 1.00 | 0.08 | 63 | 1003.8 |
| 20260506123204 | 65 | 231 | 6.1 | 13.9 | 0.00 | 1.00 | 0.08 | 63 | 1003.8 |
| 20260506123105 | 65 | 228 | 7.0 | 13.9 | 0.00 | 1.00 | 0.08 | 62 | 1004.1 |
| 20260506122904 | 66 | 224 | 7.0 | 13.9 | 0.00 | 1.00 | 0.08 | 62 | 1004.1 |
| 20260506122804 | 66 | 221 | 7.0 | 13.9 | 0.00 | 1.00 | 0.08 | 59 | 1003.8 |
| 20260506122711 | 66 | 221 | 7.0 | 13.9 | 0.00 | 1.00 | 0.08 | 62 | 1004.1 |
| 20260506122704 | 66 | 220 | 7.0 | 13.9 | 0.00 | 1.00 | 0.08 | 62 | 1004.1 |
| 20260506122604 | 66 | 221 | 7.0 | 13.9 | 0.00 | 1.00 | 0.08 | 63 | 1004.0 |
| 20260506122404 | 66 | 227 | 7.0 | 13.9 | 0.00 | 1.00 | 0.08 | 60 | 1004.0 |
| 20260506122306 | 67 | 226 | 7.0 | 13.9 | 0.00 | 1.00 | 0.08 | 61 | 1003.9 |
| 20260506122204 | 67 | 225 | 7.0 | 13.0 | 0.00 | 1.00 | 0.08 | 61 | 1004.0 |
| 20260506122104 | 67 | 229 | 6.1 | 12.2 | 0.00 | 1.00 | 0.08 | 60 | 1004.1 |
| 20260506122004 | 66 | 231 | 6.1 | 12.2 | 0.00 | 1.00 | 0.08 | 61 | 1004.0 |
| 20260506121904 | 66 | 233 | 5.2 | 12.2 | 0.00 | 1.00 | 0.08 | 61 | 1004.0 |
| 20260506121804 | 66 | 237 | 5.2 | 11.3 | 0.00 | 1.00 | 0.08 | 61 | 1003.9 |
| 20260506121704 | 66 | 238 | 4.3 | 9.6 | 0.00 | 1.00 | 0.08 | 63 | 1003.9 |
| 20260506121605 | 66 | 237 | 4.3 | 9.6 | 0.00 | 1.00 | 0.08 | 62 | 1003.8 |
| 20260506121504 | 66 | 235 | 5.2 | 12.2 | 0.00 | 1.00 | 0.08 | 60 | 1003.9 |
| 20260506121404 | 66 | 228 | 4.3 | 12.2 | 0.00 | 1.00 | 0.08 | 62 | 1003.9 |
| 20260506121304 | 66 | 229 | 4.3 | 12.2 | 0.00 | 1.00 | 0.08 | 63 | 1004.1 |
| 20260506121211 | 66 | 229 | 4.3 | 12.2 | 0.00 | 1.00 | 0.08 | 64 | 1004.1 |
| 20260506121204 | 66 | 229 | 4.3 | 12.2 | 0.00 | 1.00 | 0.08 | 64 | 1004.1 |
| 20260506121111 | 65 | 230 | 4.3 | 12.2 | 0.00 | 1.00 | 0.08 | 63 | 1004.0 |
| 20260506121105 | 65 | 231 | 4.3 | 12.2 | 0.00 | 1.00 | 0.08 | 63 | 1004.0 |
| 20260506120804 | 65 | 235 | 5.2 | 12.2 | 0.00 | 1.00 | 0.08 | 62 | 1004.0 |
| 20260506120704 | 65 | 235 | 5.2 | 12.2 | 0.00 | 1.00 | 0.08 | 62 | 1003.9 |
| 20260506120611 | 65 | 237 | 5.2 | 12.2 | 0.00 | 1.00 | 0.08 | 62 | 1003.9 |
| 20260506120605 | 65 | 238 | 5.2 | 12.2 | 0.00 | 1.00 | 0.08 | 64 | 1003.9 |
| 20260506120504 | 65 | 238 | 5.2 | 11.3 | 0.00 | 1.00 | 0.08 | 64 | 1003.9 |
| 20260506120304 | 65 | 235 | 5.2 | 11.3 | 0.00 | 1.00 | 0.08 | 62 | 1003.9 |
| 20260506120204 | 65 | 234 | 5.2 | 11.3 | 0.00 | 1.00 | 0.08 | 62 | 1003.8 |
| 20260506120105 | 66 | 231 | 5.2 | 11.3 | 0.00 | 1.00 | 0.08 | 61 | 1003.9 |
| 20260506120005 | 66 | 228 | 6.1 | 13.0 | 0.00 | 1.00 | 0.08 | 62 | 1003.8 |
| 20260506115904 | 66 | 232 | 6.1 | 13.0 | 0.00 | 1.00 | 0.08 | 61 | 1003.9 |
| 20260506115804 | 66 | 236 | 6.1 | 14.8 | 0.00 | 1.00 | 0.08 | 64 | 1003.9 |
| 20260506115704 | 65 | 237 | 6.1 | 14.8 | 0.00 | 1.00 | 0.08 | 63 | 1004.1 |
| 20260506115604 | 65 | 235 | 6.1 | 14.8 | 0.00 | 1.00 | 0.08 | 62 | 1004.0 |
| 20260506115504 | 65 | 233 | 7.0 | 14.8 | 0.00 | 1.00 | 0.08 | 61 | 1004.0 |
| 20260506115411 | 65 | 233 | 7.0 | 14.8 | 0.00 | 1.00 | 0.08 | 61 | 1004.0 |
| 20260506115404 | 65 | 234 | 7.0 | 14.8 | 0.00 | 1.00 | 0.08 | 61 | 1004.0 |
| 20260506115307 | 65 | 233 | 7.0 | 14.8 | 0.00 | 1.00 | 0.08 | 63 | 1004.0 |
| 20260506115111 | 65 | 235 | 7.0 | 14.8 | 0.00 | 1.00 | 0.08 | 61 | 1004.0 |
| 20260506115004 | 65 | 239 | 6.1 | 14.8 | 0.00 | 1.00 | 0.08 | 62 | 1003.9 |
| 20260506114804 | 65 | 229 | 5.2 | 12.2 | 0.00 | 1.00 | 0.08 | 61 | 1004.1 |
| 20260506114705 | 66 | 228 | 5.2 | 12.2 | 0.00 | 1.00 | 0.08 | 62 | 1003.9 |
| 20260506114505 | 66 | 229 | 4.3 | 12.2 | 0.00 | 1.00 | 0.08 | 61 | 1004.0 |
| 20260506114404 | 66 | 233 | 5.2 | 12.2 | 0.00 | 1.00 | 0.08 | 61 | 1004.0 |
| 20260506114304 | 66 | 238 | 5.2 | 11.3 | 0.00 | 1.00 | 0.08 | 64 | 1003.9 |
| 20260506114104 | 66 | 235 | 5.2 | 11.3 | 0.00 | 1.00 | 0.08 | 62 | 1003.7 |
| 20260506114005 | 66 | 231 | 4.3 | 11.3 | 0.00 | 1.00 | 0.08 | 65 | 1003.9 |
| 20260506113904 | 66 | 231 | 4.3 | 11.3 | 0.00 | 1.00 | 0.08 | 63 | 1004.0 |
| 20260506113704 | 66 | 229 | 5.2 | 12.2 | 0.00 | 1.00 | 0.08 | 63 | 1003.8 |
| 20260506113604 | 66 | 221 | 5.2 | 12.2 | 0.00 | 1.00 | 0.08 | 62 | 1003.9 |
| 20260506113304 | 66 | 205 | 5.2 | 12.2 | 0.00 | 1.00 | 0.08 | 64 | 1004.0 |
| 20260506113204 | 65 | 205 | 4.3 | 12.2 | 0.00 | 1.00 | 0.08 | 64 | 1003.8 |
| 20260506113104 | 65 | 207 | 5.2 | 12.2 | 0.00 | 1.00 | 0.08 | 63 | 1004.0 |
| 20260506113004 | 65 | 205 | 5.2 | 12.2 | 0.00 | 1.00 | 0.08 | 63 | 1004.0 |
| 20260506112911 | 65 | 207 | 5.2 | 12.2 | 0.00 | 1.00 | 0.08 | 62 | 1004.1 |
| 20260506112904 | 65 | 208 | 6.1 | 12.2 | 0.00 | 1.00 | 0.08 | 62 | 1004.1 |
| 20260506112804 | 65 | 208 | 6.1 | 12.2 | 0.00 | 1.00 | 0.08 | 63 | 1004.1 |
| 20260506112604 | 65 | 220 | 5.2 | 12.2 | 0.00 | 1.00 | 0.08 | 63 | 1003.8 |
| 20260506112504 | 65 | 225 | 5.2 | 12.2 | 0.00 | 1.00 | 0.08 | 66 | 1004.1 |
| 20260506112404 | 65 | 230 | 5.2 | 12.2 | 0.00 | 1.00 | 0.08 | 66 | 1004.1 |
| 20260506112306 | 65 | 227 | 5.2 | 12.2 | 0.00 | 1.00 | 0.08 | 65 | 1004.1 |
| 20260506112204 | 65 | 227 | 5.2 | 12.2 | 0.00 | 1.00 | 0.08 | 64 | 1003.9 |
| 20260506112104 | 65 | 225 | 5.2 | 12.2 | 0.00 | 1.00 | 0.08 | 63 | 1003.9 |
| 20260506112004 | 65 | 226 | 5.2 | 12.2 | 0.00 | 1.00 | 0.08 | 63 | 1003.9 |
| 20260506111904 | 65 | 222 | 5.2 | 12.2 | 0.00 | 1.00 | 0.08 | 63 | 1004.0 |
| 20260506111811 | 65 | 220 | 5.2 | 12.2 | 0.00 | 1.00 | 0.08 | 63 | 1004.0 |
| 20260506111704 | 66 | 216 | 5.2 | 12.2 | 0.00 | 1.00 | 0.08 | 63 | 1004.1 |
| 20260506111504 | 66 | 212 | 4.3 | 9.6 | 0.00 | 1.00 | 0.08 | 61 | 1004.2 |
| 20260506111404 | 66 | 212 | 4.3 | 9.6 | 0.00 | 1.00 | 0.08 | 61 | 1004.1 |
| 20260506111304 | 67 | 214 | 4.3 | 8.7 | 0.00 | 1.00 | 0.08 | 60 | 1004.1 |
| 20260506111204 | 67 | 215 | 4.3 | 8.7 | 0.00 | 1.00 | 0.08 | 60 | 1003.9 |
| 20260506111104 | 67 | 214 | 4.3 | 8.7 | 0.00 | 1.00 | 0.08 | 60 | 1004.1 |
| 20260506111004 | 67 | 215 | 4.3 | 11.3 | 0.00 | 1.00 | 0.08 | 62 | 1004.1 |
| 20260506110904 | 67 | 215 | 5.2 | 11.3 | 0.00 | 1.00 | 0.08 | 62 | 1004.0 |
| 20260506110804 | 67 | 214 | 5.2 | 11.3 | 0.00 | 1.00 | 0.08 | 62 | 1004.0 |
| 20260506110704 | 67 | 214 | 5.2 | 14.8 | 0.00 | 1.00 | 0.08 | 63 | 1004.1 |
| 20260506110604 | 67 | 213 | 5.2 | 14.8 | 0.00 | 1.00 | 0.08 | 62 | 1004.2 |
| 20260506110504 | 67 | 212 | 6.1 | 14.8 | 0.00 | 1.00 | 0.08 | 61 | 1004.1 |
| 20260506110404 | 67 | 212 | 6.1 | 14.8 | 0.00 | 1.00 | 0.08 | 62 | 1004.1 |
| 20260506110304 | 67 | 211 | 6.1 | 14.8 | 0.00 | 1.00 | 0.08 | 61 | 1004.1 |
| 20260506110204 | 67 | 209 | 6.1 | 14.8 | 0.00 | 1.00 | 0.08 | 61 | 1004.2 |
| 20260506110111 | 67 | 210 | 7.0 | 14.8 | 0.00 | 1.00 | 0.08 | 61 | 1004.0 |
| 20260506110104 | 67 | 211 | 7.0 | 14.8 | 0.00 | 1.00 | 0.08 | 61 | 1004.0 |
| 20260506110005 | 67 | 211 | 7.0 | 14.8 | 0.00 | 1.00 | 0.08 | 61 | 1004.1 |
| 20260506105804 | 66 | 213 | 7.0 | 14.8 | 0.00 | 1.00 | 0.08 | 61 | 1004.1 |
| 20260506105704 | 66 | 214 | 6.1 | 14.8 | 0.00 | 1.00 | 0.08 | 63 | 1003.8 |
| 20260506105604 | 66 | 213 | 6.1 | 14.8 | 0.00 | 1.00 | 0.08 | 63 | 1003.9 |
| 20260506105504 | 66 | 215 | 6.1 | 14.8 | 0.00 | 1.00 | 0.08 | 63 | 1004.0 |
| 20260506105404 | 65 | 217 | 6.1 | 14.8 | 0.00 | 1.00 | 0.08 | 62 | 1004.0 |
| 20260506105305 | 65 | 217 | 6.1 | 14.8 | 0.00 | 1.00 | 0.08 | 63 | 1004.0 |
| 20260506105204 | 65 | 219 | 5.2 | 14.8 | 0.00 | 1.00 | 0.08 | 63 | 1004.0 |
| 20260506105104 | 65 | 217 | 5.2 | 14.8 | 0.00 | 1.00 | 0.08 | 62 | 1004.1 |
| 20260506105011 | 65 | 218 | 5.2 | 14.8 | 0.00 | 1.00 | 0.08 | 63 | 1003.9 |
| 20260506105004 | 65 | 219 | 5.2 | 14.8 | 0.00 | 1.00 | 0.08 | 63 | 1003.9 |
| 20260506104911 | 65 | 219 | 4.3 | 13.0 | 0.00 | 1.00 | 0.08 | 62 | 1003.9 |
| 20260506104904 | 65 | 220 | 4.3 | 11.3 | 0.00 | 1.00 | 0.08 | 62 | 1003.9 |
| 20260506104604 | 65 | 218 | 5.2 | 12.2 | 0.00 | 1.00 | 0.08 | 63 | 1003.9 |
| 20260506104504 | 65 | 215 | 5.2 | 12.2 | 0.00 | 1.00 | 0.08 | 62 | 1003.9 |
| 20260506104404 | 65 | 214 | 5.2 | 12.2 | 0.00 | 1.00 | 0.08 | 63 | 1004.2 |
| 20260506104305 | 65 | 215 | 5.2 | 16.5 | 0.00 | 1.00 | 0.08 | 61 | 1004.1 |
| 20260506104204 | 65 | 213 | 5.2 | 16.5 | 0.00 | 1.00 | 0.08 | 64 | 1004.0 |
| 20260506104104 | 65 | 213 | 5.2 | 16.5 | 0.00 | 1.00 | 0.08 | 60 | 1004.0 |
| 20260506103904 | 65 | 212 | 5.2 | 16.5 | 0.00 | 1.00 | 0.08 | 62 | 1004.0 |
| 20260506103804 | 65 | 215 | 5.2 | 16.5 | 0.00 | 1.00 | 0.08 | 65 | 1003.8 |
| 20260506103704 | 65 | 213 | 5.2 | 16.5 | 0.00 | 1.00 | 0.08 | 64 | 1004.0 |
| 20260506103604 | 65 | 213 | 5.2 | 16.5 | 0.00 | 1.00 | 0.08 | 62 | 1004.1 |
| 20260506103504 | 65 | 216 | 5.2 | 16.5 | 0.00 | 1.00 | 0.08 | 64 | 1004.0 |
| 20260506103404 | 65 | 216 | 5.2 | 16.5 | 0.00 | 1.00 | 0.08 | 65 | 1004.2 |
| 20260506103304 | 65 | 213 | 5.2 | 12.2 | 0.00 | 1.00 | 0.08 | 65 | 1003.9 |
| 20260506103204 | 64 | 212 | 5.2 | 12.2 | 0.00 | 1.00 | 0.08 | 65 | 1003.9 |
| 20260506103104 | 64 | 211 | 6.1 | 13.9 | 0.00 | 1.00 | 0.08 | 64 | 1004.3 |
| 20260506103004 | 64 | 211 | 6.1 | 13.9 | 0.00 | 1.00 | 0.08 | 64 | 1004.1 |
| 20260506102904 | 64 | 209 | 6.1 | 13.9 | 0.00 | 1.00 | 0.08 | 64 | 1004.3 |
| 20260506102804 | 64 | 206 | 6.1 | 13.9 | 0.00 | 1.00 | 0.08 | 65 | 1004.3 |
| 20260506102704 | 64 | 208 | 6.1 | 18.2 | 0.00 | 1.00 | 0.08 | 66 | 1004.3 |
| 20260506102611 | 64 | 207 | 6.1 | 18.2 | 0.00 | 1.00 | 0.08 | 66 | 1004.4 |
| 20260506102604 | 64 | 207 | 6.1 | 18.2 | 0.00 | 1.00 | 0.08 | 66 | 1004.4 |
| 20260506102504 | 64 | 202 | 6.1 | 18.2 | 0.00 | 1.00 | 0.08 | 67 | 1004.5 |
| 20260506102204 | 64 | 200 | 7.0 | 18.2 | 0.00 | 1.00 | 0.08 | 67 | 1004.4 |
| 20260506102104 | 64 | 197 | 7.0 | 19.1 | 0.00 | 1.00 | 0.08 | 68 | 1004.5 |
| 20260506102004 | 64 | 197 | 7.0 | 19.1 | 0.00 | 1.00 | 0.08 | 65 | 1004.4 |
| 20260506101904 | 64 | 196 | 7.8 | 19.1 | 0.00 | 1.00 | 0.08 | 66 | 1004.4 |
| 20260506101811 | 64 | 196 | 7.8 | 19.1 | 0.00 | 1.00 | 0.08 | 66 | 1004.4 |
| 20260506101804 | 64 | 196 | 7.8 | 19.1 | 0.00 | 1.00 | 0.08 | 66 | 1004.4 |
| 20260506101704 | 64 | 194 | 7.8 | 19.1 | 0.00 | 1.00 | 0.08 | 66 | 1004.5 |
| 20260506101504 | 64 | 198 | 7.8 | 19.1 | 0.00 | 1.00 | 0.08 | 67 | 1004.5 |
| 20260506101411 | 64 | 199 | 8.7 | 19.1 | 0.00 | 1.00 | 0.08 | 67 | 1004.4 |
| 20260506101404 | 64 | 199 | 8.7 | 19.1 | 0.00 | 1.00 | 0.08 | 68 | 1004.4 |
| 20260506101304 | 64 | 200 | 8.7 | 19.1 | 0.00 | 1.00 | 0.08 | 68 | 1004.4 |
| 20260506101104 | 64 | 202 | 8.7 | 19.1 | 0.00 | 1.00 | 0.08 | 66 | 1004.3 |
| 20260506101004 | 64 | 205 | 8.7 | 14.8 | 0.00 | 1.00 | 0.08 | 66 | 1004.3 |
| 20260506100904 | 64 | 205 | 8.7 | 14.8 | 0.00 | 1.00 | 0.08 | 66 | 1004.3 |
| 20260506100804 | 64 | 202 | 7.8 | 14.8 | 0.00 | 1.00 | 0.08 | 67 | 1004.3 |
| 20260506100704 | 64 | 202 | 7.8 | 14.8 | 0.00 | 1.00 | 0.08 | 66 | 1004.4 |
| 20260506100504 | 64 | 199 | 7.0 | 14.8 | 0.00 | 1.00 | 0.08 | 66 | 1004.5 |
| 20260506100404 | 64 | 200 | 7.0 | 14.8 | 0.00 | 1.00 | 0.08 | 67 | 1004.4 |
| 20260506100304 | 64 | 197 | 6.1 | 13.0 | 0.00 | 1.00 | 0.08 | 67 | 1004.3 |
| 20260506100005 | 64 | 195 | 6.1 | 12.2 | 0.00 | 1.00 | 0.08 | 68 | 1004.3 |
| 20260506095904 | 64 | 195 | 5.2 | 9.6 | 0.00 | 1.00 | 0.08 | 68 | 1004.4 |
| 20260506095804 | 64 | 198 | 5.2 | 9.6 | 0.00 | 1.00 | 0.08 | 68 | 1004.5 |
| 20260506095604 | 64 | 206 | 5.2 | 11.3 | 0.00 | 1.00 | 0.08 | 67 | 1004.3 |
| 20260506095505 | 64 | 208 | 5.2 | 11.3 | 0.00 | 1.00 | 0.08 | 68 | 1004.5 |
| 20260506095404 | 64 | 213 | 5.2 | 11.3 | 0.00 | 1.00 | 0.08 | 68 | 1004.4 |
| 20260506095305 | 64 | 216 | 5.2 | 11.3 | 0.00 | 1.00 | 0.08 | 67 | 1004.3 |
| 20260506095204 | 64 | 220 | 5.2 | 13.0 | 0.00 | 1.00 | 0.08 | 69 | 1004.3 |
| 20260506095104 | 64 | 220 | 4.3 | 13.0 | 0.00 | 1.00 | 0.08 | 69 | 1004.3 |
| 20260506095004 | 64 | 222 | 4.3 | 13.0 | 0.00 | 1.00 | 0.08 | 69 | 1004.4 |
| 20260506094904 | 63 | 225 | 5.2 | 13.0 | 0.00 | 1.00 | 0.08 | 68 | 1004.3 |
| 20260506094811 | 63 | 226 | 5.2 | 13.0 | 0.00 | 1.00 | 0.08 | 69 | 1004.4 |
| 20260506094804 | 63 | 226 | 5.2 | 13.0 | 0.00 | 1.00 | 0.08 | 69 | 1004.4 |
| 20260506094704 | 63 | 226 | 5.2 | 13.0 | 0.00 | 1.00 | 0.08 | 68 | 1004.4 |
| 20260506094504 | 63 | 223 | 5.2 | 13.0 | 0.00 | 1.00 | 0.08 | 71 | 1004.5 |
| 20260506094404 | 62 | 222 | 5.2 | 13.0 | 0.00 | 1.00 | 0.08 | 71 | 1004.3 |
| 20260506094304 | 62 | 219 | 5.2 | 13.0 | 0.00 | 1.00 | 0.08 | 70 | 1004.5 |
| 20260506094104 | 62 | 214 | 5.2 | 13.0 | 0.00 | 1.00 | 0.08 | 69 | 1004.2 |
| 20260506094005 | 62 | 216 | 5.2 | 13.0 | 0.00 | 1.00 | 0.08 | 70 | 1004.2 |
| 20260506093904 | 62 | 219 | 5.2 | 13.0 | 0.00 | 1.00 | 0.08 | 70 | 1004.3 |
| 20260506093804 | 62 | 220 | 5.2 | 13.0 | 0.00 | 1.00 | 0.08 | 72 | 1004.2 |
| 20260506093704 | 61 | 221 | 4.3 | 13.0 | 0.00 | 1.00 | 0.08 | 72 | 1004.3 |
| 20260506093604 | 61 | 217 | 5.2 | 12.2 | 0.00 | 1.00 | 0.08 | 72 | 1004.2 |
| 20260506093504 | 61 | 220 | 5.2 | 12.2 | 0.00 | 1.00 | 0.08 | 72 | 1004.3 |
| 20260506093404 | 60 | 220 | 6.1 | 15.6 | 0.00 | 1.00 | 0.08 | 72 | 1004.2 |
| 20260506093311 | 61 | 222 | 6.1 | 15.6 | 0.00 | 1.00 | 0.08 | 72 | 1004.1 |
| 20260506093304 | 61 | 224 | 6.1 | 15.6 | 0.00 | 1.00 | 0.08 | 72 | 1004.1 |
| 20260506093204 | 60 | 228 | 7.0 | 15.6 | 0.00 | 1.00 | 0.08 | 73 | 1004.2 |
| 20260506093004 | 61 | 233 | 7.0 | 15.6 | 0.00 | 1.00 | 0.08 | 71 | 1004.1 |
| 20260506092904 | 60 | 231 | 7.8 | 15.6 | 0.00 | 1.00 | 0.08 | 71 | 1004.1 |
| 20260506092804 | 61 | 231 | 7.8 | 18.2 | 0.00 | 1.00 | 0.08 | 71 | 1004.1 |
| 20260506092704 | 60 | 230 | 8.7 | 18.2 | 0.00 | 1.00 | 0.08 | 70 | 1004.0 |
| 20260506092604 | 60 | 232 | 8.7 | 18.2 | 0.00 | 1.00 | 0.08 | 70 | 1004.1 |
| 20260506092504 | 60 | 234 | 8.7 | 18.2 | 0.00 | 1.00 | 0.08 | 70 | 1004.2 |
| 20260506092404 | 60 | 237 | 7.8 | 18.2 | 0.00 | 1.00 | 0.08 | 70 | 1004.0 |
| 20260506092306 | 60 | 235 | 7.8 | 18.2 | 0.00 | 1.00 | 0.08 | 71 | 1004.1 |
| 20260506092204 | 60 | 234 | 7.8 | 18.2 | 0.00 | 1.00 | 0.08 | 72 | 1004.3 |
| 20260506092104 | 60 | 234 | 7.8 | 18.2 | 0.00 | 1.00 | 0.08 | 72 | 1004.0 |
| 20260506092004 | 60 | 229 | 8.7 | 18.2 | 0.00 | 1.00 | 0.08 | 70 | 1004.0 |
| 20260506091904 | 61 | 228 | 8.7 | 18.2 | 0.00 | 1.00 | 0.08 | 70 | 1004.0 |
| 20260506091804 | 61 | 227 | 7.8 | 18.2 | 0.00 | 1.00 | 0.08 | 70 | 1004.0 |
| 20260506091704 | 61 | 227 | 7.8 | 16.5 | 0.00 | 1.00 | 0.08 | 72 | 1004.2 |
| 20260506091605 | 61 | 226 | 7.0 | 16.5 | 0.00 | 1.00 | 0.08 | 70 | 1004.1 |
| 20260506091504 | 61 | 225 | 7.0 | 16.5 | 0.00 | 1.00 | 0.08 | 69 | 1004.0 |
| 20260506091404 | 62 | 222 | 7.0 | 16.5 | 0.00 | 1.00 | 0.08 | 70 | 1004.0 |
| 20260506091304 | 62 | 224 | 7.0 | 16.5 | 0.00 | 1.00 | 0.08 | 69 | 1004.2 |
| 20260506091104 | 62 | 222 | 7.0 | 16.5 | 0.00 | 1.00 | 0.08 | 70 | 1004.0 |
| 20260506091004 | 62 | 224 | 7.0 | 13.0 | 0.00 | 1.00 | 0.08 | 70 | 1003.9 |
| 20260506090904 | 61 | 224 | 7.0 | 13.0 | 0.00 | 1.00 | 0.08 | 69 | 1004.1 |
| 20260506090804 | 61 | 221 | 7.8 | 14.8 | 0.00 | 1.00 | 0.08 | 69 | 1004.0 |
| 20260506090704 | 61 | 222 | 7.0 | 14.8 | 0.00 | 1.00 | 0.08 | 72 | 1004.0 |
| 20260506090611 | 61 | 224 | 7.8 | 14.8 | 0.00 | 1.00 | 0.08 | 71 | 1003.8 |
| 20260506090504 | 61 | 221 | 7.8 | 14.8 | 0.00 | 1.00 | 0.08 | 71 | 1003.9 |
| 20260506090312 | 61 | 218 | 7.0 | 14.8 | 0.00 | 1.00 | 0.08 | 70 | 1004.0 |
| 20260506090304 | 61 | 217 | 7.0 | 14.8 | 0.00 | 1.00 | 0.08 | 70 | 1004.0 |
| 20260506090204 | 61 | 215 | 7.0 | 14.8 | 0.00 | 1.00 | 0.08 | 69 | 1004.0 |
| 20260506090005 | 61 | 215 | 6.1 | 14.8 | 0.00 | 1.00 | 0.08 | 69 | 1004.1 |
| 20260506085904 | 61 | 218 | 7.0 | 14.8 | 0.00 | 1.00 | 0.08 | 71 | 1003.8 |
| 20260506085804 | 61 | 222 | 7.0 | 13.0 | 0.00 | 1.00 | 0.08 | 70 | 1003.8 |
| 20260506085704 | 61 | 223 | 7.0 | 13.9 | 0.00 | 1.00 | 0.08 | 71 | 1003.8 |
| 20260506085611 | 61 | 223 | 7.0 | 13.9 | 0.00 | 1.00 | 0.08 | 71 | 1003.9 |
| 20260506085604 | 61 | 221 | 7.0 | 13.9 | 0.00 | 1.00 | 0.08 | 71 | 1003.9 |
| 20260506085504 | 61 | 218 | 7.0 | 13.9 | 0.00 | 1.00 | 0.08 | 71 | 1003.7 |
| 20260506085413 | 61 | 218 | 7.0 | 13.9 | 0.00 | 1.00 | 0.08 | 71 | 1003.8 |
| 20260506085306 | 61 | 219 | 7.8 | 13.9 | 0.00 | 1.00 | 0.08 | 71 | 1003.9 |
| 20260506085004 | 60 | 220 | 8.7 | 13.9 | 0.00 | 1.00 | 0.08 | 71 | 1003.9 |
| 20260506084904 | 60 | 219 | 8.7 | 13.9 | 0.00 | 1.00 | 0.08 | 71 | 1004.0 |
| 20260506084805 | 60 | 223 | 8.7 | 13.9 | 0.00 | 1.00 | 0.08 | 72 | 1003.8 |
| 20260506084712 | 60 | 224 | 8.7 | 13.9 | 0.00 | 1.00 | 0.08 | 72 | 1004.0 |
| 20260506084705 | 60 | 224 | 8.7 | 13.9 | 0.00 | 1.00 | 0.08 | 72 | 1004.0 |
| 20260506084604 | 60 | 225 | 8.7 | 13.9 | 0.00 | 1.00 | 0.08 | 71 | 1003.9 |
| 20260506084406 | 60 | 229 | 8.7 | 16.5 | 0.00 | 1.00 | 0.08 | 73 | 1004.0 |
| 20260506084304 | 60 | 229 | 8.7 | 16.5 | 0.00 | 1.00 | 0.08 | 73 | 1003.9 |
| 20260506084204 | 60 | 227 | 8.7 | 16.5 | 0.00 | 1.00 | 0.08 | 73 | 1003.8 |
| 20260506084104 | 60 | 227 | 8.7 | 16.5 | 0.00 | 1.00 | 0.08 | 72 | 1003.9 |
| 20260506084004 | 60 | 225 | 7.8 | 16.5 | 0.00 | 1.00 | 0.08 | 73 | 1003.8 |
| 20260506083904 | 60 | 224 | 7.8 | 16.5 | 0.00 | 1.00 | 0.08 | 72 | 1003.8 |
| 20260506083704 | 60 | 222 | 8.7 | 19.1 | 0.00 | 1.00 | 0.08 | 74 | 1003.7 |
| 20260506083605 | 60 | 222 | 8.7 | 19.1 | 0.00 | 1.00 | 0.08 | 73 | 1003.9 |
| 20260506083404 | 60 | 219 | 8.7 | 19.1 | 0.00 | 1.00 | 0.08 | 75 | 1003.8 |
| 20260506083304 | 60 | 223 | 8.7 | 19.1 | 0.00 | 1.00 | 0.08 | 74 | 1003.6 |
| 20260506083204 | 60 | 227 | 8.7 | 19.1 | 0.00 | 1.00 | 0.08 | 76 | 1003.6 |
| 20260506083104 | 60 | 229 | 9.6 | 19.1 | 0.00 | 1.00 | 0.08 | 75 | 1003.6 |
| 20260506082904 | 60 | 232 | 10.4 | 19.1 | 0.00 | 1.00 | 0.08 | 75 | 1003.6 |
| 20260506082804 | 59 | 230 | 10.4 | 19.1 | 0.00 | 1.00 | 0.08 | 73 | 1003.8 |
| 20260506082704 | 59 | 230 | 10.4 | 18.2 | 0.00 | 1.00 | 0.08 | 74 | 1003.9 |
| 20260506082604 | 59 | 232 | 9.6 | 18.2 | 0.00 | 1.00 | 0.08 | 76 | 1003.8 |
| 20260506082504 | 59 | 236 | 10.4 | 20.0 | 0.00 | 1.00 | 0.08 | 76 | 1003.7 |
| 20260506082404 | 59 | 238 | 10.4 | 20.0 | 0.00 | 1.00 | 0.08 | 75 | 1003.6 |
| 20260506082305 | 59 | 233 | 11.3 | 20.0 | 0.00 | 1.00 | 0.08 | 75 | 1003.6 |
| 20260506082204 | 59 | 231 | 11.3 | 20.0 | 0.00 | 1.00 | 0.08 | 75 | 1003.5 |
| 20260506082104 | 59 | 231 | 11.3 | 20.0 | 0.00 | 1.00 | 0.08 | 75 | 1003.5 |
| 20260506082004 | 59 | 230 | 11.3 | 21.7 | 0.00 | 1.00 | 0.08 | 76 | 1003.6 |
| 20260506081904 | 59 | 228 | 11.3 | 21.7 | 0.00 | 1.00 | 0.08 | 75 | 1003.6 |